FW4143 Weather Reports


time (UTC)temp
C
wind
direction
speed
KPH
gust
KPH
rain 1hr
cm
rain 24hr
cm
rain mn
cm
humidity
%
barometer
mb
20260510132004 23 313 3.2 8.0 0.00 2.01 0.00 1 1013.5
20260510131904 23 312 3.2 8.0 0.00 2.01 0.00 1 1013.5
20260510131825 23 313 3.2 8.0 0.00 2.01 0.00 1 1013.4
20260510131725 23 320 3.2 8.0 0.00 2.01 0.00 1 1013.4
20260510131604 23 331 3.2 8.0 0.00 2.01 0.00 1 1013.4
20260510131504 22 339 3.2 8.0 0.00 2.01 0.00 1 1013.4
20260510131404 22 347 3.2 8.0 0.00 2.01 0.00 1 1013.3
20260510131304 22 357 3.2 8.0 0.00 2.01 0.00 1 1013.3
20260510131204 22 7 3.2 8.0 0.00 2.01 0.00 1 1013.3
20260510131104 22 15 3.2 8.0 0.00 2.01 0.00 1 1013.3
20260510131025 22 21 3.2 8.0 0.00 2.01 0.00 1 1013.2
20260510130904 22 30 3.2 8.0 0.00 2.01 0.00 1 1013.3
20260510130804 22 34 3.2 8.0 0.00 2.01 0.00 1 1013.3
20260510130704 22 34 3.2 8.0 0.00 2.01 0.00 1 1013.3
20260510130604 22 35 3.2 8.0 0.00 2.01 0.00 1 1013.3
20260510130504 22 35 3.2 8.0 0.00 2.01 0.00 1 1013.2
20260510130404 22 35 3.2 8.0 0.00 2.01 0.00 1 1013.3
20260510130304 22 35 3.2 8.0 0.00 2.01 0.00 1 1013.3
20260510130204 22 36 3.2 8.0 0.00 2.01 0.00 1 1013.3
20260510130104 22 36 3.2 8.0 0.00 2.01 0.00 1 1013.3
20260510130004 22 36 3.2 8.0 0.00 2.01 0.00 1 1013.3
20260510125904 22 37 3.2 8.0 0.00 2.01 0.00 1 1013.2
20260510125804 22 37 1.6 6.4 0.00 2.01 0.00 1 1013.2
20260510125704 22 37 1.6 6.4 0.00 2.01 0.00 1 1013.3
20260510125604 22 37 1.6 6.4 0.00 2.01 0.00 1 1013.2
20260510125525 22 37 1.6 6.4 0.00 2.01 0.00 1 1013.2
20260510125425 22 37 1.6 6.4 0.00 2.01 0.00 1 1013.2
20260510125306 22 37 1.6 4.8 0.00 2.01 0.00 1 1013.2
20260510125204 22 37 1.6 4.8 0.00 2.01 0.00 1 1013.1
20260510125104 22 37 1.6 4.8 0.00 2.01 0.00 1 1013.1
20260510125025 22 37 1.6 4.8 0.00 2.01 0.00 1 1013.1
20260510124904 22 37 1.6 4.8 0.00 2.01 0.00 1 1013.0
20260510124804 22 37 1.6 4.8 0.00 2.01 0.00 1 1013.0
20260510124704 22 37 1.6 4.8 0.00 2.01 0.00 1 1013.1
20260510124604 22 37 1.6 4.8 0.00 2.01 0.00 1 1013.0
20260510124504 22 37 1.6 4.8 0.00 2.01 0.00 1 1013.0
20260510124425 22 37 1.6 4.8 0.00 2.01 0.00 1 1013.0
20260510124325 22 37 1.6 4.8 0.00 2.01 0.00 1 1013.0
20260510124204 22 37 1.6 4.8 0.00 2.01 0.00 1 1013.0
20260510124104 22 37 1.6 8.0 0.00 2.01 0.00 1 1013.0
20260510124004 22 38 1.6 8.0 0.00 2.01 0.00 1 1013.0
20260510123904 22 38 1.6 8.0 0.00 2.01 0.00 1 1013.0
20260510123804 22 38 1.6 8.0 0.00 2.01 0.00 1 1012.9
20260510123704 22 39 1.6 8.0 0.00 2.01 0.00 1 1012.9
20260510123604 22 39 3.2 8.0 0.00 2.01 0.00 1 1012.8
20260510123504 21 39 3.2 8.0 0.00 2.01 0.00 1 1012.8
20260510123404 21 39 3.2 8.0 0.00 2.01 0.00 1 1012.8
20260510123304 21 39 3.2 8.0 0.00 2.01 0.00 1 1012.6
20260510123204 21 39 3.2 8.0 0.00 2.01 0.00 1 1012.6
20260510123104 21 39 3.2 8.0 0.00 2.01 0.00 1 1012.6
20260510123004 21 39 3.2 8.0 0.00 2.01 0.00 1 1012.5
20260510122925 21 39 3.2 8.0 0.00 2.01 0.00 1 1012.5
20260510122804 21 39 3.2 8.0 0.00 2.01 0.00 1 1012.5
20260510122725 21 39 3.2 8.0 0.00 2.01 0.00 1 1012.4
20260510122604 21 39 3.2 8.0 0.00 2.01 0.00 1 1012.4
20260510122504 21 40 3.2 8.0 0.00 2.01 0.00 1 1012.4
20260510122425 21 40 3.2 8.0 0.00 2.01 0.00 1 1012.4
20260510122306 21 40 3.2 8.0 0.00 2.01 0.00 1 1012.4
20260510122204 21 40 3.2 8.0 0.00 2.01 0.00 1 1012.4
20260510122125 21 40 3.2 8.0 0.00 2.01 0.00 1 1012.4
20260510122025 21 40 3.2 8.0 0.00 2.01 0.00 1 1012.3
20260510121904 21 41 3.2 8.0 0.00 2.01 0.00 1 1012.3
20260510121804 21 41 3.2 8.0 0.00 2.01 0.00 1 1012.3
20260510121725 21 41 3.2 8.0 0.00 2.01 0.00 1 1012.3
20260510121604 21 41 3.2 8.0 0.00 2.01 0.00 1 1012.3
20260510121504 21 41 3.2 8.0 0.00 2.01 0.00 1 1012.3
20260510121404 21 41 1.6 6.4 0.00 2.01 0.00 1 1012.3
20260510121304 21 41 1.6 4.8 0.00 2.01 0.00 1 1012.2
20260510121204 21 41 1.6 4.8 0.00 2.01 0.00 1 1012.3
20260510121104 21 41 1.6 4.8 0.00 2.01 0.00 1 1012.2
20260510121004 21 41 1.6 4.8 0.00 2.01 0.00 1 1012.3
20260510120904 21 41 1.6 8.0 0.00 2.01 0.00 1 1012.3
20260510120804 21 41 1.6 8.0 0.00 2.01 0.00 1 1012.2
20260510120704 21 42 1.6 8.0 0.00 2.01 0.00 1 1012.3
20260510120604 21 42 1.6 8.0 0.00 2.01 0.00 1 1012.2
20260510120525 21 42 3.2 8.0 0.00 2.01 0.00 1 1012.2
20260510120404 21 42 3.2 8.0 0.00 2.01 0.00 1 1012.2
20260510120304 21 43 3.2 8.0 0.00 2.01 0.00 1 1012.2
20260510120225 21 43 3.2 8.0 0.00 2.01 0.00 1 1012.2
20260510120104 21 43 3.2 8.0 0.00 2.01 0.00 1 1012.2
20260510120025 21 43 3.2 8.0 0.00 2.01 0.00 1 1012.1
20260510115925 21 44 3.2 6.4 0.00 2.01 0.00 1 1012.1
20260510115804 21 44 3.2 8.0 0.00 2.01 0.00 1 1012.1
20260510115704 21 44 3.2 8.0 0.00 2.01 0.00 1 1012.1
20260510115604 21 44 3.2 8.0 0.00 2.01 0.00 1 1012.1
20260510115504 21 44 3.2 8.0 0.00 2.01 0.00 1 1012.1
20260510115404 21 44 3.2 8.0 0.00 2.01 0.00 1 1012.1
20260510115306 21 44 3.2 8.0 0.00 2.01 0.00 1 1012.1
20260510115204 21 44 3.2 8.0 0.00 2.01 0.00 1 1012.1
20260510115104 21 44 3.2 8.0 0.00 2.01 0.00 1 1012.1
20260510115004 21 44 3.2 8.0 0.00 2.01 0.00 1 1012.1
20260510114904 21 44 1.6 8.0 0.00 2.01 0.00 1 1012.1
20260510114804 21 44 1.6 6.4 0.00 2.01 0.00 1 1012.1
20260510114704 21 44 1.6 6.4 0.00 2.01 0.00 1 1012.1
20260510114604 21 44 1.6 6.4 0.00 2.01 0.00 1 1012.1
20260510114504 21 44 1.6 6.4 0.00 2.01 0.00 1 1012.1
20260510114404 21 44 1.6 6.4 0.00 2.01 0.00 1 1012.1
20260510114304 21 44 1.6 6.4 0.00 2.01 0.00 1 1012.1
20260510114204 21 44 1.6 6.4 0.00 2.01 0.00 1 1012.1
20260510114125 21 44 1.6 6.4 0.00 2.01 0.00 1 1012.1
20260510114025 21 44 1.6 6.4 0.00 2.01 0.00 1 1012.1
20260510113904 21 44 1.6 6.4 0.00 2.01 0.00 1 1012.1
20260510113804 21 44 1.6 6.4 0.00 2.01 0.00 1 1012.1
20260510113704 21 44 3.2 6.4 0.00 2.01 0.00 1 1012.1
20260510113604 21 44 3.2 6.4 0.00 2.01 0.00 1 1012.1
20260510113504 21 44 3.2 6.4 0.00 2.01 0.00 1 1012.1
20260510113404 21 44 3.2 6.4 0.00 2.01 0.00 1 1012.0
20260510113304 21 44 3.2 6.4 0.00 2.01 0.00 1 1012.0
20260510113204 21 44 3.2 6.4 0.00 2.01 0.00 1 1011.9
20260510113104 21 44 3.2 6.4 0.00 2.01 0.00 1 1012.0
20260510113004 21 44 3.2 6.4 0.00 2.01 0.00 1 1011.9
20260510112925 21 44 3.2 6.4 0.00 2.01 0.00 1 1011.9
20260510112804 21 44 3.2 6.4 0.00 2.01 0.00 1 1011.9
20260510112704 21 44 3.2 8.0 0.00 2.01 0.00 1 1011.8
20260510112604 21 44 3.2 8.0 0.00 2.01 0.00 1 1011.8
20260510112504 21 45 3.2 8.0 0.00 2.01 0.00 1 1011.8
20260510112404 21 45 3.2 8.0 0.00 2.01 0.00 1 1011.8
20260510112306 21 46 3.2 8.0 0.00 2.01 0.00 1 1011.9
20260510112204 21 46 3.2 8.0 0.00 2.01 0.00 1 1011.9
20260510112104 21 46 3.2 8.0 0.00 2.01 0.00 1 1011.9
20260510112004 21 46 3.2 8.0 0.00 2.01 0.00 1 1011.9
20260510111904 21 47 3.2 8.0 0.00 2.01 0.00 1 1011.8
20260510111804 21 47 3.2 8.0 0.00 2.01 0.00 1 1011.9
20260510111704 21 46 3.2 8.0 0.00 2.01 0.00 1 1011.9
20260510111604 21 45 3.2 8.0 0.00 2.01 0.00 1 1011.8
20260510111504 21 44 4.8 9.7 0.00 2.01 0.00 1 1011.8
20260510111404 21 45 4.8 9.7 0.00 2.01 0.00 1 1011.8
20260510111304 21 46 4.8 9.7 0.00 2.01 0.00 1 1011.8
20260510111225 21 47 4.8 9.7 0.00 2.01 0.00 1 1011.8
20260510111104 21 47 4.8 9.7 0.00 2.01 0.00 1 1011.7
20260510111004 21 47 4.8 9.7 0.00 2.01 0.00 1 1011.7
20260510110904 21 47 4.8 9.7 0.00 2.01 0.00 1 1011.7
20260510110804 21 48 4.8 9.7 0.00 2.01 0.00 1 1011.7
20260510110704 21 51 4.8 9.7 0.00 2.01 0.00 1 1011.6
20260510110604 21 52 4.8 9.7 0.00 2.01 0.00 1 1011.6
20260510110505 21 54 4.8 9.7 0.00 2.01 0.00 1 1011.6
20260510110425 21 54 6.4 9.7 0.00 2.01 0.00 1 1011.6
20260510110304 21 53 6.4 9.7 0.00 2.01 0.00 1 1011.6
20260510110204 21 52 6.4 9.7 0.00 2.01 0.00 1 1011.6
20260510110104 21 52 6.4 11.3 0.00 2.01 0.00 1 1011.6
20260510110005 21 53 6.4 11.3 0.00 2.01 0.00 1 1011.6
20260510105904 21 54 6.4 11.3 0.00 2.01 0.00 1 1011.6
20260510105804 21 52 6.4 12.9 0.00 2.01 0.00 1 1011.6
20260510105704 21 50 6.4 14.5 0.00 2.01 0.00 1 1011.6
20260510105625 21 49 6.4 14.5 0.00 2.01 0.00 1 1011.6
20260510105504 21 48 6.4 14.5 0.00 2.01 0.00 1 1011.6
20260510105404 22 48 6.4 14.5 0.00 2.01 0.00 1 1011.7
20260510105306 22 48 6.4 14.5 0.00 2.01 0.00 1 1011.7
20260510105204 22 47 6.4 14.5 0.00 2.01 0.00 1 1011.7
20260510105104 22 48 8.0 14.5 0.00 2.01 0.00 1 1011.6
20260510105004 22 47 8.0 14.5 0.00 2.01 0.00 1 1011.6
20260510104904 22 46 8.0 14.5 0.00 2.01 0.00 1 1011.6
20260510104804 22 47 6.4 14.5 0.00 2.01 0.00 1 1011.6
20260510104725 22 49 6.4 14.5 0.00 2.01 0.00 1 1011.5
20260510104625 22 48 6.4 14.5 0.00 2.01 0.00 1 1011.5
20260510104504 22 49 6.4 14.5 0.00 2.01 0.00 1 1011.5
20260510104425 22 50 6.4 14.5 0.00 2.01 0.00 1 1011.4
20260510104304 22 50 8.0 14.5 0.00 2.01 0.00 1 1011.4
20260510104204 22 50 8.0 14.5 0.00 2.01 0.00 1 1011.4
20260510104104 22 50 8.0 16.1 0.00 2.01 0.00 1 1011.4
20260510104004 22 50 6.4 16.1 0.00 2.01 0.00 1 1011.4
20260510103904 22 51 6.4 16.1 0.00 2.01 0.00 1 1011.4
20260510103804 22 50 6.4 16.1 0.00 2.01 0.00 1 1011.4
20260510103725 22 50 6.4 16.1 0.00 2.01 0.00 1 1011.4
20260510103604 22 50 8.0 17.7 0.00 2.01 0.00 1 1011.4
20260510103504 22 50 6.4 17.7 0.00 2.01 0.00 1 1011.4
20260510103404 22 49 6.4 17.7 0.00 2.01 0.00 1 1011.4
20260510103304 22 49 6.4 17.7 0.00 2.01 0.00 1 1011.5
20260510103204 22 49 6.4 17.7 0.00 2.01 0.00 1 1011.5
20260510103104 22 51 6.4 17.7 0.00 2.01 0.00 1 1011.4
20260510103004 22 52 6.4 17.7 0.00 2.01 0.00 1 1011.4
20260510102904 22 52 8.0 20.9 0.00 2.01 0.00 1 1011.4
20260510102804 22 51 8.0 20.9 0.00 2.01 0.00 1 1011.4
20260510102705 22 51 8.0 20.9 0.00 2.01 0.00 1 1011.4
20260510102604 22 52 6.4 20.9 0.00 2.01 0.00 1 1011.3
20260510102504 22 52 6.4 20.9 0.00 2.01 0.00 1 1011.3
20260510102404 22 52 8.0 20.9 0.00 2.01 0.00 1 1011.2
20260510102306 22 52 8.0 20.9 0.00 2.01 0.00 1 1011.2
20260510102204 22 53 8.0 20.9 0.00 2.01 0.00 1 1011.2
20260510102104 22 50 9.7 20.9 0.00 2.01 0.00 1 1011.1
20260510102004 22 48 9.7 22.5 0.00 2.01 0.00 1 1011.1
20260510101904 22 47 9.7 22.5 0.00 2.01 0.00 1 1011.0
20260510101804 22 45 9.7 22.5 0.00 2.01 0.00 1 1011.0
20260510101704 22 46 9.7 22.5 0.00 2.01 0.00 1 1011.0
20260510101604 22 44 9.7 22.5 0.00 2.01 0.00 1 1011.0
20260510101504 22 44 9.7 22.5 0.00 2.01 0.00 1 1011.0
20260510101404 22 42 11.3 22.5 0.00 2.01 0.00 1 1010.9
20260510101304 22 40 9.7 22.5 0.00 2.01 0.00 1 1010.9
20260510101204 22 39 9.7 22.5 0.00 2.01 0.00 1 1010.9
20260510101104 22 40 9.7 22.5 0.00 2.01 0.00 1 1010.9
20260510101004 22 39 9.7 17.7 0.00 2.01 0.00 1 1010.9
20260510100904 22 39 9.7 17.7 0.00 2.01 0.00 1 1010.9
20260510100804 22 40 8.0 17.7 0.00 2.01 0.00 1 1011.0
20260510100704 22 38 9.7 17.7 0.00 2.01 0.00 1 1010.9
20260510100604 22 37 9.7 17.7 0.00 2.01 0.00 1 1011.0
20260510100525 22 36 9.7 17.7 0.00 2.01 0.00 1 1010.9
20260510100404 22 37 8.0 17.7 0.00 2.01 0.00 1 1011.0
20260510100304 22 39 8.0 17.7 0.00 2.01 0.00 1 1011.0
20260510100204 22 40 8.0 17.7 0.00 2.01 0.00 1 1011.0
20260510100104 22 40 8.0 17.7 0.00 2.01 0.00 1 1011.0
20260510100004 22 41 8.0 17.7 0.00 2.01 0.00 1 1011.0
20260510095904 22 41 8.0 17.7 0.00 2.01 0.00 1 1010.9
20260510095825 22 41 8.0 17.7 0.00 2.01 0.00 1 1010.9
20260510095725 22 42 8.0 17.7 0.00 2.01 0.00 1 1011.0
20260510095604 22 45 8.0 14.5 0.00 2.01 0.00 1 1011.0
20260510095504 22 45 8.0 14.5 0.00 2.01 0.00 1 1011.0
20260510095404 22 45 8.0 14.5 0.00 2.01 0.00 1 1011.0
20260510095306 22 45 8.0 14.5 0.00 2.01 0.00 1 1011.0
20260510095204 22 46 8.0 14.5 0.00 2.01 0.00 1 1011.1
20260510095104 22 46 8.0 14.5 0.00 2.01 0.00 1 1011.1
20260510095004 22 48 8.0 14.5 0.00 2.01 0.00 1 1011.1
20260510094904 22 47 8.0 14.5 0.00 2.01 0.00 1 1011.1
20260510094804 21 48 8.0 12.9 0.00 2.01 0.00 1 1011.1
20260510094704 21 47 8.0 12.9 0.00 2.01 0.00 1 1011.1
20260510094604 21 46 8.0 12.9 0.00 2.01 0.00 1 1011.2
20260510094504 21 47 6.4 12.9 0.00 2.01 0.00 1 1011.1
20260510094404 21 48 6.4 12.9 0.00 2.01 0.00 1 1011.1
20260510094305 21 48 6.4 12.9 0.00 2.01 0.00 1 1011.1
20260510094204 21 47 6.4 12.9 0.00 2.01 0.00 1 1011.1
20260510094104 21 46 6.4 14.5 0.00 2.01 0.00 1 1011.1
20260510094025 21 46 6.4 14.5 0.00 2.01 0.00 1 1011.1
20260510093904 21 47 6.4 14.5 0.00 2.01 0.00 1 1011.1
20260510093804 21 46 6.4 14.5 0.00 2.01 0.00 1 1011.0
20260510093725 21 46 6.4 14.5 0.00 2.01 0.00 1 1011.1
20260510093604 21 46 6.4 14.5 0.00 2.01 0.00 1 1011.0
20260510093504 21 45 6.4 14.5 0.00 2.01 0.00 1 1011.1
20260510093404 21 43 6.4 14.5 0.00 2.01 0.00 1 1011.1
20260510093304 21 42 4.8 14.5 0.00 2.01 0.00 1 1011.1
20260510093204 21 42 4.8 14.5 0.00 2.01 0.00 1 1011.1
20260510093104 21 42 4.8 14.5 0.00 2.01 0.00 1 1011.1
20260510093004 21 40 4.8 14.5 0.00 2.01 0.00 1 1011.1
20260510092904 21 38 4.8 11.3 0.00 2.01 0.00 1 1011.1
20260510092804 21 38 4.8 11.3 0.00 2.01 0.00 1 1011.0
20260510092704 21 35 4.8 12.9 0.00 2.01 0.00 1 1011.0
20260510092604 21 36 4.8 12.9 0.00 2.01 0.00 1 1011.0
20260510092525 21 37 4.8 12.9 0.00 2.01 0.00 1 1010.9
20260510092404 21 38 4.8 12.9 0.00 2.01 0.00 1 1010.9
20260510092306 21 36 6.4 12.9 0.00 2.01 0.00 1 1010.9
20260510092204 21 36 4.8 12.9 0.00 2.01 0.00 1 1010.9
20260510092125 21 36 6.4 12.9 0.00 2.01 0.00 1 1010.9
20260510092004 21 37 6.4 14.5 0.00 2.01 0.00 1 1010.8
20260510091904 21 38 6.4 14.5 0.00 2.01 0.00 1 1010.8
20260510091825 21 39 6.4 14.5 0.00 2.01 0.00 1 1010.7
20260510091704 21 41 6.4 14.5 0.00 2.01 0.00 1 1010.7
20260510091604 21 39 6.4 14.5 0.00 2.01 0.00 1 1010.7
20260510091504 21 38 6.4 14.5 0.00 2.01 0.00 1 1010.6
20260510091404 21 39 6.4 14.5 0.00 2.01 0.00 1 1010.7
20260510091304 21 42 6.4 14.5 0.00 2.01 0.00 1 1010.7
20260510091204 21 41 6.4 14.5 0.00 2.01 0.00 1 1010.7
20260510091104 21 42 6.4 12.9 0.00 2.01 0.00 1 1010.6
20260510091004 21 40 4.8 12.9 0.00 2.01 0.00 1 1010.7
20260510090925 21 40 4.8 12.9 0.00 2.01 0.00 1 1010.7
20260510090804 21 38 4.8 11.3 0.00 2.01 0.00 1 1010.7
20260510090704 21 38 4.8 11.3 0.00 2.01 0.00 1 1010.7
20260510090604 21 40 4.8 11.3 0.00 2.01 0.00 1 1010.7
20260510090504 21 42 4.8 12.9 0.00 2.01 0.00 1 1010.7
20260510090404 21 41 4.8 12.9 0.00 2.01 0.00 1 1010.7
20260510090304 21 41 4.8 12.9 0.00 2.01 0.00 1 1010.8
20260510090204 21 41 4.8 12.9 0.00 2.01 0.00 1 1010.8
20260510090104 21 42 4.8 12.9 0.00 2.01 0.00 1 1010.9
20260510090004 21 44 4.8 12.9 0.00 2.01 0.00 1 1010.8
20260510085925 21 44 6.4 12.9 0.00 2.01 0.00 1 1010.8
20260510085804 21 44 6.4 12.9 0.00 2.01 0.00 1 1010.9
20260510085704 21 45 6.4 12.9 0.00 2.01 0.00 1 1010.9
20260510085604 21 44 6.4 12.9 0.00 2.01 0.00 1 1011.0
20260510085504 21 41 4.8 12.9 0.00 2.01 0.00 1 1011.0
20260510085404 21 39 4.8 12.9 0.00 2.01 0.00 1 1011.0
20260510085325 21 36 4.8 12.9 0.00 2.01 0.00 1 1011.0
20260510085204 21 34 4.8 12.9 0.00 2.01 0.00 1 1011.0
20260510085104 21 33 4.8 12.9 0.00 2.01 0.00 1 1011.0
20260510085025 21 32 4.8 12.9 0.00 2.01 0.00 1 1011.0
20260510084904 21 31 3.2 12.9 0.00 2.01 0.00 1 1011.0
20260510084804 21 31 3.2 11.3 0.00 2.01 0.00 1 1011.1
20260510084704 21 33 4.8 11.3 0.00 2.01 0.00 1 1011.1
20260510084604 21 33 4.8 11.3 0.00 2.01 0.00 1 1011.2
20260510084504 21 37 4.8 11.3 0.00 2.01 0.00 1 1011.1
20260510084404 21 40 4.8 11.3 0.00 2.01 0.00 1 1011.2
20260510084325 21 42 4.8 9.7 0.00 2.01 0.00 1 1011.1
20260510084204 21 42 4.8 11.3 0.00 2.01 0.00 1 1011.2
20260510084104 21 41 4.8 11.3 0.00 2.01 0.00 1 1011.2
20260510084004 21 41 4.8 11.3 0.00 2.01 0.00 1 1011.1
20260510083904 21 43 4.8 11.3 0.00 2.01 0.00 1 1011.1
20260510083804 21 40 4.8 11.3 0.00 2.01 0.00 1 1011.1
20260510083704 21 33 4.8 11.3 0.00 2.01 0.00 1 1011.1
20260510083625 21 30 4.8 11.3 0.00 2.01 0.00 1 1011.1
20260510083504 21 27 4.8 11.3 0.00 2.01 0.00 1 1011.2
20260510083404 21 27 4.8 11.3 0.00 2.01 0.00 1 1011.2
20260510083304 21 27 4.8 12.9 0.00 2.01 0.00 1 1011.1
20260510083204 21 28 4.8 12.9 0.00 2.01 0.00 1 1011.2
20260510083105 21 30 4.8 12.9 0.00 2.01 0.00 1 1011.1
20260510083004 21 32 4.8 12.9 0.00 2.01 0.00 1 1011.2
20260510082904 21 31 4.8 12.9 0.00 2.01 0.00 1 1011.2
20260510082804 21 33 4.8 12.9 0.00 2.01 0.00 1 1011.2
20260510082704 21 38 4.8 12.9 0.00 2.01 0.00 1 1011.2
20260510082604 21 41 4.8 12.9 0.00 2.01 0.00 1 1011.2
20260510082504 21 39 6.4 12.9 0.00 2.01 0.00 1 1011.2
20260510082425 21 37 4.8 12.9 0.00 2.01 0.00 1 1011.2
20260510082325 21 34 4.8 12.9 0.00 2.01 0.00 1 1011.2
20260510082204 21 29 4.8 9.7 0.00 2.01 0.00 1 1011.1
20260510082104 21 25 4.8 9.7 0.00 2.01 0.00 1 1011.2
20260510082004 22 18 4.8 9.7 0.00 2.01 0.00 1 1011.2
20260510081904 22 9 4.8 9.7 0.00 2.01 0.00 1 1011.2
20260510081825 22 4 4.8 9.7 0.00 2.01 0.00 1 1011.1
20260510081704 22 360 4.8 9.7 0.00 2.01 0.00 1 1011.2
20260510081604 22 3 4.8 9.7 0.00 2.01 0.00 1 1011.1
20260510081504 22 7 4.8 9.7 0.00 2.01 0.00 1 1011.1
20260510081425 22 14 4.8 9.7 0.00 2.01 0.00 1 1011.2
20260510081325 22 21 4.8 9.7 0.00 2.01 0.00 1 1011.2
20260510081225 22 25 4.8 9.7 0.00 2.01 0.00 1 1011.2
20260510081104 22 28 4.8 9.7 0.00 2.01 0.00 1 1011.1
20260510081005 22 34 4.8 9.7 0.00 2.01 0.00 1 1011.2
20260510080904 22 39 4.8 9.7 0.00 2.01 0.00 1 1011.2
20260510080804 22 43 4.8 9.7 0.00 2.01 0.00 1 1011.2
20260510080704 22 44 4.8 9.7 0.00 2.01 0.00 1 1011.2
20260510080604 22 43 4.8 9.7 0.00 2.01 0.00 1 1011.2
20260510080504 22 42 4.8 9.7 0.00 2.01 0.00 1 1011.2
20260510080425 22 42 4.8 9.7 0.00 2.01 0.00 1 1011.2
20260510080304 22 42 4.8 9.7 0.00 2.01 0.00 1 1011.2
20260510080204 22 44 4.8 9.7 0.00 2.01 0.00 1 1011.2
20260510080104 22 45 4.8 9.7 0.00 2.01 0.00 1 1011.2
20260510080025 22 45 4.8 9.7 0.00 2.01 0.00 1 1011.2
20260510075904 22 45 4.8 9.7 0.00 2.01 0.00 1 1011.3
20260510075804 22 44 4.8 9.7 0.00 2.01 0.00 1 1011.3
20260510075704 22 43 4.8 8.0 0.00 2.01 0.00 1 1011.3
20260510075604 22 43 4.8 8.0 0.00 2.01 0.00 1 1011.3
20260510075504 22 40 4.8 9.7 0.00 2.01 0.00 1 1011.2
20260510075404 22 35 4.8 9.7 0.00 2.01 0.00 1 1011.3
20260510075306 22 29 4.8 9.7 0.00 2.01 0.00 1 1011.3
20260510075204 22 23 4.8 9.7 0.00 2.01 0.00 1 1011.3
20260510075104 22 19 4.8 9.7 0.00 2.01 0.00 1 1011.3
20260510075005 22 13 4.8 9.7 0.00 2.01 0.00 1 1011.3
20260510074904 22 6 4.8 9.7 0.00 2.01 0.00 1 1011.3
20260510074804 22 359 3.2 9.7 0.00 2.01 0.00 1 1011.3
20260510074704 22 353 3.2 9.7 0.00 2.01 0.00 1 1011.3
20260510074604 22 347 3.2 9.7 0.00 2.01 0.00 1 1011.3
20260510074504 22 342 3.2 8.0 0.00 2.01 0.00 1 1011.3
20260510074404 22 342 3.2 8.0 0.00 2.01 0.00 1 1011.3
20260510074325 22 342 3.2 8.0 0.00 2.01 0.00 1 1011.3
20260510074204 22 341 3.2 6.4 0.00 2.01 0.00 1 1011.3
20260510074104 22 341 3.2 6.4 0.00 2.01 0.00 1 1011.3
20260510074004 22 341 3.2 6.4 0.00 2.01 0.00 1 1011.4
20260510073904 22 340 3.2 6.4 0.00 2.01 0.00 1 1011.4
20260510073804 22 340 3.2 6.4 0.00 2.01 0.00 1 1011.4
20260510073704 22 340 3.2 6.4 0.00 2.01 0.00 1 1011.4
20260510073604 22 340 3.2 6.4 0.00 2.01 0.00 1 1011.4
20260510073504 22 339 1.6 6.4 0.00 2.01 0.00 1 1011.5
20260510073404 22 339 1.6 6.4 0.00 2.01 0.00 1 1011.5
20260510073304 22 339 1.6 6.4 0.00 2.01 0.00 1 1011.5
20260510073204 22 339 1.6 6.4 0.00 2.01 0.00 1 1011.5
20260510073104 22 338 1.6 6.4 0.00 2.01 0.00 1 1011.5
20260510073004 22 338 1.6 6.4 0.00 2.01 0.00 1 1011.4
20260510072904 22 339 1.6 6.4 0.00 2.01 0.00 1 1011.4
20260510072804 22 339 1.6 6.4 0.00 2.01 0.00 1 1011.4
20260510072704 22 340 1.6 6.4 0.00 2.01 0.00 1 1011.4
20260510072604 22 340 1.6 6.4 0.00 2.01 0.00 1 1011.4
20260510072504 22 341 3.2 6.4 0.00 2.01 0.00 1 1011.3
20260510072404 22 341 3.2 6.4 0.00 2.01 0.00 1 1011.3
20260510072306 22 341 3.2 6.4 0.00 2.01 0.00 1 1011.3
20260510072204 22 342 3.2 6.4 0.00 2.01 0.00 1 1011.4
20260510072104 22 342 3.2 6.4 0.00 2.01 0.00 1 1011.4
20260510072025 22 342 3.2 6.4 0.00 2.01 0.00 1 1011.4
20260510071904 22 342 3.2 6.4 0.00 2.01 0.00 1 1011.4
20260510071804 22 341 3.2 6.4 0.00 2.01 0.00 1 1011.3
20260510071704 22 340 4.8 8.0 0.00 2.01 0.00 1 1011.2
20260510071604 22 338 3.2 8.0 0.00 2.01 0.00 1 1011.2
20260510071504 22 336 4.8 8.0 0.00 2.01 0.00 1 1011.1
20260510071404 22 336 4.8 8.0 0.00 2.01 0.00 1 1011.1
20260510071325 22 336 4.8 8.0 0.00 2.01 0.00 1 1011.2
20260510071204 22 337 4.8 8.0 0.00 2.01 0.00 1 1011.2
20260510071104 22 337 3.2 8.0 0.00 2.01 0.00 1 1011.2
20260510071004 22 338 3.2 8.0 0.00 2.01 0.00 1 1011.2
20260510070904 22 339 3.2 8.0 0.00 2.01 0.00 1 1011.2
20260510070804 22 340 3.2 8.0 0.00 2.01 0.00 1 1011.2
20260510070704 22 341 3.2 8.0 0.00 2.01 0.00 1 1011.2
20260510070604 22 343 3.2 8.0 0.00 2.01 0.00 1 1011.3
20260510070504 22 345 3.2 8.0 0.00 2.01 0.00 1 1011.2
20260510070404 22 345 3.2 8.0 0.00 2.01 0.00 1 1011.2
20260510070304 22 344 3.2 8.0 0.00 2.01 0.00 1 1011.3
20260510070204 22 343 3.2 8.0 0.00 2.01 0.00 1 1011.2
20260510070104 22 342 3.2 8.0 0.00 2.01 0.00 1 1011.3
20260510070004 22 341 3.2 8.0 0.00 2.01 0.00 1 1011.3
20260510065925 22 339 3.2 8.0 0.00 2.01 0.00 1 1011.2
20260510065804 22 334 3.2 8.0 0.00 2.01 0.00 1 1011.3
20260510065704 22 330 3.2 8.0 0.00 2.01 0.00 1 1011.3
20260510065604 22 328 3.2 8.0 0.00 2.01 0.00 1 1011.3
20260510065504 22 326 3.2 8.0 0.00 2.01 0.00 1 1011.3
20260510065404 22 324 3.2 8.0 0.00 2.01 0.00 2 1011.3
20260510065306 22 322 3.2 8.0 0.00 2.01 0.00 3 1011.4
20260510065204 22 320 3.2 8.0 0.00 2.01 0.00 3 1011.4
20260510065104 22 318 3.2 8.0 0.00 2.01 0.00 4 1011.4
20260510065004 22 317 3.2 8.0 0.00 2.01 0.00 4 1011.5
20260510064925 22 317 3.2 8.0 0.00 2.01 0.00 4 1011.4
20260510064804 22 316 4.8 8.0 0.00 2.01 0.00 5 1011.4
20260510064704 22 314 4.8 8.0 0.00 2.01 0.00 6 1011.4
20260510064625 22 312 3.2 8.0 0.00 2.01 0.00 6 1011.4
20260510064504 22 310 4.8 8.0 0.00 2.01 0.00 6 1011.4
20260510064404 22 313 4.8 8.0 0.00 2.01 0.00 7 1011.4
20260510064325 22 316 4.8 8.0 0.00 2.01 0.00 7 1011.4
20260510064204 22 318 4.8 8.0 0.00 2.01 0.00 8 1011.4
20260510064104 22 319 4.8 8.0 0.00 2.01 0.00 8 1011.4
20260510064004 22 321 4.8 8.0 0.00 2.01 0.00 9 1011.4
20260510063925 22 320 4.8 8.0 0.00 2.01 0.00 9 1011.4
20260510063804 22 322 4.8 9.7 0.00 2.01 0.00 10 1011.4
20260510063704 22 324 4.8 9.7 0.00 2.01 0.00 10 1011.3
20260510063604 22 326 4.8 9.7 0.00 2.01 0.00 10 1011.4
20260510063504 22 328 4.8 9.7 0.00 2.01 0.00 11 1011.3
20260510063404 22 327 4.8 9.7 0.00 2.01 0.00 11 1011.3
20260510063304 22 325 4.8 9.7 0.00 2.01 0.00 11 1011.4
20260510063204 22 333 4.8 9.7 0.00 2.01 0.00 12 1011.3
20260510063104 22 334 4.8 9.7 0.00 2.01 0.00 12 1011.3
20260510063004 22 330 4.8 9.7 0.00 2.01 0.00 12 1011.3
20260510062904 22 331 3.2 9.7 0.00 2.01 0.00 13 1011.3
20260510062804 22 331 4.8 9.7 0.00 2.01 0.00 13 1011.3
20260510062704 22 331 4.8 9.7 0.00 2.01 0.00 13 1011.3
20260510062604 22 330 4.8 9.7 0.00 2.01 0.00 13 1011.3
20260510062504 22 329 4.8 9.7 0.00 2.01 0.00 13 1011.3
20260510062425 22 329 4.8 9.7 0.00 2.01 0.00 14 1011.3
20260510062325 22 328 4.8 9.7 0.00 2.01 0.00 14 1011.3
20260510062204 22 319 4.8 9.7 0.00 2.01 0.00 15 1011.3
20260510062104 22 319 4.8 9.7 0.00 2.01 0.00 15 1011.3
20260510062004 22 322 4.8 9.7 0.00 2.01 0.00 15 1011.3
20260510061925 22 323 3.2 9.7 0.00 2.01 0.00 15 1011.3
20260510061804 22 322 3.2 9.7 0.00 2.01 0.00 15 1011.3
20260510061704 22 323 3.2 9.7 0.00 2.01 0.00 15 1011.3
20260510061604 22 324 3.2 9.7 0.00 2.01 0.00 16 1011.2
20260510061525 22 324 3.2 9.7 0.00 2.01 0.00 16 1011.2
20260510061404 22 325 3.2 9.7 0.00 2.01 0.00 16 1011.2
20260510061304 22 326 3.2 8.0 0.00 2.01 0.00 15 1011.3
20260510061204 22 326 3.2 9.7 0.00 2.01 0.00 15 1011.3
20260510061125 22 327 3.2 9.7 0.00 2.01 0.00 15 1011.3
20260510061004 22 327 3.2 9.7 0.00 2.01 0.00 15 1011.3
20260510060904 22 327 3.2 9.7 0.00 2.01 0.00 15 1011.3
20260510060825 22 327 3.2 9.7 0.00 2.01 0.00 15 1011.3
20260510060725 22 327 3.2 9.7 0.00 2.01 0.00 15 1011.3
20260510060604 23 327 3.2 9.7 0.00 2.01 0.00 14 1011.3
20260510060525 23 327 3.2 9.7 0.00 2.01 0.00 14 1011.3
20260510060404 23 327 3.2 9.7 0.00 2.01 0.00 14 1011.3
20260510060304 23 327 3.2 9.7 0.00 2.01 0.00 14 1011.3
20260510060204 23 327 3.2 6.4 0.00 2.01 0.00 13 1011.3
20260510060125 23 327 3.2 6.4 0.00 2.01 0.00 13 1011.3
20260510060004 23 327 3.2 8.0 0.00 2.01 0.00 13 1011.2
20260510055904 23 327 3.2 8.0 0.00 2.01 0.00 13 1011.3
20260510055825 23 326 3.2 8.0 0.00 2.01 0.00 13 1011.2
20260510055704 23 326 3.2 8.0 0.00 2.01 0.00 13 1011.2
20260510055604 23 325 3.2 8.0 0.00 2.01 0.00 13 1011.2
20260510055504 23 325 3.2 8.0 0.00 2.01 0.00 13 1011.2
20260510055404 23 324 3.2 8.0 0.00 2.01 0.00 13 1011.2
20260510055306 23 324 3.2 8.0 0.00 2.01 0.00 13 1011.2
20260510055204 23 324 3.2 8.0 0.00 2.01 0.00 13 1011.2
20260510055104 23 323 3.2 8.0 0.00 2.01 0.00 13 1011.2
20260510055004 23 323 3.2 6.4 0.00 2.01 0.00 12 1011.1
20260510054904 23 322 3.2 6.4 0.00 2.01 0.00 12 1011.1
20260510054804 23 322 3.2 6.4 0.00 2.01 0.00 11 1011.1
20260510054704 23 322 3.2 6.4 0.00 2.01 0.00 11 1011.1
20260510054604 23 322 3.2 6.4 0.00 2.01 0.00 11 1011.1
20260510054504 23 322 3.2 6.4 0.00 2.01 0.00 11 1011.1
20260510054404 23 322 3.2 6.4 0.00 2.01 0.00 11 1011.1
20260510054325 23 321 3.2 6.4 0.00 2.01 0.00 10 1011.1
20260510054225 23 321 3.2 6.4 0.00 2.01 0.00 10 1011.1
20260510054104 23 321 3.2 6.4 0.00 2.01 0.00 9 1011.1
20260510054025 23 321 3.2 6.4 0.00 2.01 0.00 9 1011.1
20260510053904 23 321 3.2 6.4 0.00 2.01 0.00 9 1011.1
20260510053804 23 321 3.2 6.4 0.00 2.01 0.00 9 1011.1
20260510053704 23 321 3.2 6.4 0.00 2.01 0.00 8 1011.1
20260510053604 23 321 3.2 6.4 0.00 2.01 0.00 8 1011.1
20260510053504 23 321 3.2 6.4 0.00 2.01 0.00 8 1011.1
20260510053404 23 320 3.2 6.4 0.00 2.01 0.00 7 1011.1
20260510053304 23 320 3.2 6.4 0.00 2.01 0.00 7 1011.1
20260510053204 23 320 3.2 6.4 0.00 2.01 0.00 6 1011.1
20260510053104 23 320 3.2 6.4 0.00 2.01 0.00 5 1011.2
20260510053004 23 320 3.2 6.4 0.00 2.01 0.00 4 1011.1
20260510052925 23 320 3.2 4.8 0.00 2.01 0.00 4 1011.1
20260510052804 23 320 3.2 6.4 0.00 2.01 0.00 2 1011.2
20260510052704 23 320 3.2 6.4 0.00 2.01 0.00 1 1011.1
20260510052604 23 320 1.6 6.4 0.00 2.01 0.00 1 1011.1
20260510052504 23 319 1.6 6.4 0.00 2.01 0.00 1 1011.2
20260510052404 23 319 1.6 6.4 0.00 2.01 0.00 1 1011.2
20260510052306 23 319 1.6 6.4 0.00 2.01 0.00 1 1011.2
20260510052204 23 319 1.6 6.4 0.00 2.01 0.00 1 1011.2
20260510052104 23 319 1.6 6.4 0.00 2.01 0.00 1 1011.2
20260510052004 23 319 1.6 6.4 0.00 2.01 0.00 1 1011.2
20260510051904 23 319 1.6 6.4 0.00 2.01 0.00 1 1011.2
20260510051804 23 319 0.0 3.2 0.00 2.01 0.00 1 1011.2
20260510051704 23 319 0.0 3.2 0.00 2.01 0.00 1 1011.2
20260510051604 23 319 0.0 3.2 0.00 2.01 0.00 1 1011.2
20260510051504 23 0 0.0 1.6 0.00 2.01 0.00 1 1011.2
20260510051404 23 0 0.0 1.6 0.00 2.01 0.00 1 1011.2
20260510051304 23 0 0.0 1.6 0.00 2.01 0.00 1 1011.2
20260510051204 23 0 0.0 1.6 0.00 2.01 0.00 1 1011.2
20260510051104 23 319 0.0 1.6 0.00 2.01 0.00 1 1011.2
20260510051004 23 319 0.0 1.6 0.00 2.01 0.00 1 1011.3
20260510050904 23 319 0.0 1.6 0.00 2.01 0.00 1 1011.3
20260510050804 23 319 0.0 1.6 0.00 2.01 0.00 1 1011.3
20260510050704 23 319 0.0 1.6 0.00 2.01 0.00 1 1011.3
20260510050604 23 319 0.0 1.6 0.00 2.01 0.00 1 1011.2
20260510050504 23 319 0.0 1.6 0.00 2.01 0.00 1 1011.3
20260510050404 23 319 0.0 1.6 0.00 2.01 0.00 1 1011.3
20260510050304 23 319 0.0 1.6 0.00 2.01 0.00 1 1011.2
20260510050225 23 319 0.0 1.6 0.00 2.01 0.00 1 1011.2
20260510050104 23 319 0.0 1.6 0.00 2.01 0.00 1 1011.2
20260510050004 23 319 0.0 1.6 0.00 2.01 0.00 1 1011.2
20260510045904 23 319 0.0 1.6 0.00 2.01 2.01 1 1011.2
20260510045804 23 319 0.0 1.6 0.00 2.01 2.01 1 1011.2
20260510045704 23 319 0.0 1.6 0.00 2.01 2.01 1 1011.2
20260510045625 23 319 0.0 1.6 0.00 2.01 2.01 1 1011.2
20260510045504 23 319 0.0 1.6 0.00 2.01 2.01 1 1011.2
20260510045404 23 319 0.0 1.6 0.00 2.01 2.01 1 1011.2
20260510045306 23 319 0.0 1.6 0.00 2.01 2.01 1 1011.2
20260510045204 23 0 0.0 0.0 0.00 2.01 2.01 1 1011.1
20260510045104 23 0 0.0 0.0 0.00 2.01 2.01 1 1011.2
20260510045004 23 0 0.0 0.0 0.00 2.01 2.01 1 1011.1
20260510044904 23 0 0.0 0.0 0.00 2.01 2.01 1 1011.1
20260510044804 23 0 0.0 0.0 0.00 2.01 2.01 1 1011.1
20260510044704 23 0 0.0 0.0 0.00 2.01 2.01 1 1011.1
20260510044604 23 0 0.0 0.0 0.00 2.01 2.01 1 1011.1
20260510044504 23 0 0.0 0.0 0.00 2.01 2.01 1 1011.1
20260510044404 23 0 0.0 0.0 0.00 2.01 2.01 1 1011.1
20260510044325 23 0 0.0 0.0 0.00 2.01 2.01 1 1011.1
20260510044204 23 0 0.0 0.0 0.00 2.01 2.01 1 1011.1
20260510044104 23 0 0.0 0.0 0.00 2.01 2.01 1 1011.1
20260510044025 23 0 0.0 0.0 0.00 2.01 2.01 1 1011.1
20260510043925 23 0 0.0 0.0 0.00 2.01 2.01 1 1011.1
20260510043804 23 319 0.0 1.6 0.00 2.01 2.01 1 1011.1
20260510043704 23 319 0.0 1.6 0.00 2.01 2.01 1 1011.1
20260510043604 23 319 0.0 1.6 0.00 2.01 2.01 1 1011.2
20260510043504 23 319 0.0 3.2 0.00 2.01 2.01 1 1011.1
20260510043404 23 319 0.0 3.2 0.00 2.01 2.01 1 1011.1
20260510043304 23 319 0.0 3.2 0.00 2.01 2.01 1 1011.1
20260510043204 23 319 0.0 3.2 0.00 2.01 2.01 1 1011.1
20260510043104 23 319 0.0 3.2 0.00 2.01 2.01 1 1011.1
20260510043004 23 319 0.0 3.2 0.00 2.01 2.01 1 1011.1
20260510042904 23 319 0.0 3.2 0.00 2.01 2.01 1 1011.1
20260510042804 23 319 0.0 3.2 0.00 2.01 2.01 1 1011.1
20260510042725 23 319 0.0 3.2 0.00 2.01 2.01 1 1011.1
20260510042604 23 319 0.0 3.2 0.00 2.01 2.01 1 1011.1
20260510042504 23 319 0.0 3.2 0.00 2.01 2.01 1 1011.1
20260510042404 23 319 0.0 3.2 0.00 2.01 2.01 1 1011.1
20260510042325 23 319 0.0 3.2 0.00 2.01 2.01 1 1011.1
20260510042204 23 319 0.0 3.2 0.00 2.01 2.01 1 1011.1
20260510042125 23 0 0.0 0.0 0.00 2.01 2.01 1 1011.1
20260510042025 23 0 0.0 0.0 0.00 2.01 2.01 1 1011.0
20260510041904 23 0 0.0 0.0 0.00 2.01 2.01 1 1011.0
20260510041825 23 0 0.0 0.0 0.00 2.01 2.01 1 1011.0
20260510041704 23 0 0.0 0.0 0.00 2.01 2.01 1 1011.0
20260510041604 23 0 0.0 0.0 0.00 2.01 2.01 1 1011.0
20260510041504 23 0 0.0 0.0 0.00 2.01 2.01 1 1011.0
20260510041404 24 0 0.0 0.0 0.00 2.01 2.01 1 1011.0
20260510041304 24 0 0.0 0.0 0.00 2.01 2.01 1 1011.0
20260510041204 24 0 0.0 0.0 0.00 2.01 2.01 1 1011.0
20260510041104 24 0 0.0 0.0 0.00 2.01 2.01 1 1011.0
20260510041004 24 0 0.0 0.0 0.00 2.01 2.01 1 1011.1
20260510040904 24 0 0.0 0.0 0.00 2.01 2.01 1 1011.0
20260510040804 24 0 0.0 0.0 0.00 2.01 2.01 1 1011.1
20260510040725 24 0 0.0 0.0 0.00 2.01 2.01 1 1011.0
20260510040604 24 0 0.0 0.0 0.00 2.01 2.01 1 1011.0
20260510040504 24 0 0.0 0.0 0.00 2.01 2.01 1 1011.0
20260510040404 24 0 0.0 0.0 0.00 2.01 2.01 1 1011.0
20260510040304 24 0 0.0 0.0 0.00 2.01 2.01 1 1011.0
20260510040204 24 0 0.0 0.0 0.00 2.01 2.01 1 1010.9
20260510040104 24 0 0.0 0.0 0.00 2.01 2.01 1 1010.9
20260510040004 24 0 0.0 0.0 0.00 2.01 2.01 1 1010.9
20260510035904 24 0 0.0 0.0 0.00 2.01 2.01 1 1010.9
20260510035804 24 0 0.0 0.0 0.00 2.01 2.01 1 1011.0
20260510035725 24 0 0.0 0.0 0.00 2.01 2.01 1 1010.9
20260510035604 24 0 0.0 0.0 0.00 2.01 2.01 1 1010.9
20260510035504 24 0 0.0 0.0 0.00 2.01 2.01 1 1010.9
20260510035404 24 0 0.0 1.6 0.00 2.01 2.01 1 1010.9
20260510035325 24 0 0.0 1.6 0.00 2.01 2.01 1 1010.9
20260510035204 24 0 0.0 1.6 0.00 2.01 2.01 1 1010.9
20260510035125 24 0 0.0 1.6 0.00 2.01 2.01 1 1010.9
20260510035004 25 0 0.0 1.6 0.00 2.01 2.01 1 1010.9
20260510034904 25 0 0.0 1.6 0.00 2.01 2.01 1 1010.9
20260510034804 25 0 0.0 1.6 0.00 2.01 2.01 1 1010.8
20260510034725 25 0 0.0 1.6 0.00 2.01 2.01 1 1010.9
20260510034604 25 0 0.0 1.6 0.00 2.01 2.01 1 1010.9
20260510034504 25 0 0.0 1.6 0.00 2.01 2.01 1 1010.8
20260510034404 25 319 0.0 3.2 0.00 2.01 2.01 1 1010.8
20260510034325 25 319 0.0 3.2 0.00 2.01 2.01 1 1010.8
20260510034204 25 319 0.0 3.2 0.00 2.01 2.01 1 1010.8
20260510034104 25 319 0.0 3.2 0.00 2.01 2.01 1 1010.8
20260510034004 25 319 0.0 3.2 0.00 2.01 2.01 1 1010.8
20260510033904 25 319 0.0 3.2 0.00 2.01 2.01 1 1010.8
20260510033804 25 319 0.0 3.2 0.00 2.01 2.01 1 1010.7
20260510033704 25 319 0.0 3.2 0.00 2.01 2.01 1 1010.8
20260510033604 25 319 0.0 3.2 0.00 2.01 2.01 1 1010.8
20260510033525 25 319 0.0 3.2 0.00 2.01 2.01 1 1010.8
20260510033404 25 319 0.0 3.2 0.00 2.01 2.01 1 1010.8
20260510033304 25 319 0.0 3.2 0.00 2.01 2.01 1 1010.7
20260510033204 25 319 0.0 3.2 0.00 2.01 2.01 1 1010.8
20260510033104 25 319 0.0 3.2 0.00 2.01 2.01 1 1010.7
20260510033004 25 319 0.0 3.2 0.00 2.01 2.01 1 1010.7
20260510032904 25 319 0.0 3.2 0.00 2.01 2.01 1 1010.7
20260510032804 25 319 0.0 3.2 0.00 2.01 2.01 1 1010.7
20260510032704 25 319 0.0 3.2 0.00 2.01 2.01 1 1010.7
20260510032604 25 319 0.0 3.2 0.00 2.01 2.01 1 1010.6
20260510032504 25 319 0.0 3.2 0.00 2.01 2.01 1 1010.6
20260510032404 25 319 0.0 3.2 0.00 2.01 2.01 1 1010.6
20260510032306 25 319 0.0 3.2 0.00 2.01 2.01 2 1010.6
20260510032204 25 319 0.0 3.2 0.00 2.01 2.01 4 1010.6
20260510032125 25 319 0.0 3.2 0.00 2.01 2.01 4 1010.6
20260510032004 25 319 1.6 3.2 0.00 2.01 2.01 6 1010.6
20260510031904 25 319 1.6 3.2 0.00 2.01 2.01 6 1010.5
20260510031825 25 319 1.6 3.2 0.00 2.01 2.01 6 1010.5
20260510031725 25 319 1.6 3.2 0.00 2.01 2.01 7 1010.5
20260510031604 25 319 1.6 3.2 0.00 2.01 2.01 8 1010.5
20260510031504 25 319 0.0 3.2 0.00 2.01 2.01 9 1010.5
20260510031404 25 319 0.0 3.2 0.00 2.01 2.01 9 1010.5
20260510031325 25 319 0.0 3.2 0.00 2.01 2.01 10 1010.5
20260510031225 25 319 1.6 3.2 0.00 2.01 2.01 10 1010.5
20260510031104 25 319 1.6 3.2 0.00 2.01 2.01 11 1010.5
20260510031004 25 319 0.0 4.8 0.00 2.01 2.01 12 1010.5
20260510030925 25 319 0.0 4.8 0.00 2.01 2.01 12 1010.5
20260510030804 25 319 1.6 4.8 0.00 2.01 2.01 13 1010.4
20260510030704 25 319 1.6 4.8 0.00 2.01 2.01 14 1010.3
20260510030604 25 319 1.6 4.8 0.00 2.01 2.01 14 1010.4
20260510030504 26 319 1.6 4.8 0.00 2.01 2.01 15 1010.4
20260510030404 26 319 1.6 4.8 0.00 2.01 2.01 15 1010.4
20260510030304 26 319 1.6 4.8 0.00 2.01 2.01 16 1010.4
20260510030204 26 319 1.6 4.8 0.00 2.01 2.01 16 1010.3
20260510030104 26 319 1.6 4.8 0.00 2.01 2.01 17 1010.3
20260510030004 26 319 1.6 4.8 0.00 2.01 2.01 17 1010.3
20260510025904 26 319 1.6 4.8 0.00 2.01 2.01 18 1010.3
20260510025804 26 319 1.6 4.8 0.00 2.01 2.01 19 1010.3
20260510025704 26 319 1.6 4.8 0.00 2.01 2.01 19 1010.2
20260510025604 26 319 1.6 6.4 0.00 2.01 2.01 19 1010.2
20260510025504 26 319 1.6 6.4 0.00 2.01 2.01 19 1010.2
20260510025404 26 319 1.6 6.4 0.00 2.01 2.01 19 1010.2
20260510025306 26 319 3.2 6.4 0.00 2.01 2.01 20 1010.2
20260510025204 26 319 3.2 6.4 0.00 2.01 2.01 20 1010.2
20260510025104 26 319 3.2 6.4 0.00 2.01 2.01 21 1010.1
20260510025025 26 318 3.2 6.4 0.00 2.01 2.01 21 1010.1
20260510024904 26 318 3.2 6.4 0.00 2.01 2.01 21 1010.1
20260510024804 26 318 3.2 6.4 0.00 2.01 2.01 21 1010.1
20260510024704 26 318 3.2 6.4 0.00 2.01 2.01 21 1010.1
20260510024604 26 317 3.2 6.4 0.00 2.01 2.01 22 1010.1
20260510024525 26 317 3.2 6.4 0.00 2.01 2.01 22 1010.1
20260510024404 26 317 3.2 6.4 0.00 2.01 2.01 22 1010.1
20260510024325 26 317 3.2 6.4 0.00 2.01 2.01 22 1010.1
20260510024204 26 316 3.2 6.4 0.00 2.01 2.01 23 1010.0
20260510024104 26 316 3.2 6.4 0.00 2.01 2.01 23 1010.0
20260510024004 26 316 3.2 6.4 0.00 2.01 2.01 24 1010.0
20260510023904 26 316 3.2 6.4 0.00 2.01 2.01 24 1009.9
20260510023804 26 316 3.2 6.4 0.00 2.01 2.01 25 1009.9
20260510023725 26 316 3.2 6.4 0.00 2.01 2.01 25 1009.9
20260510023604 26 316 3.2 6.4 0.00 2.01 2.01 25 1009.9
20260510023504 26 316 3.2 6.4 0.00 2.01 2.01 26 1009.8
20260510023404 26 316 1.6 6.4 0.00 2.01 2.01 26 1009.8
20260510023304 26 316 1.6 6.4 0.00 2.01 2.01 27 1009.8
20260510023204 26 316 1.6 6.4 0.00 2.01 2.01 27 1009.8
20260510023104 26 316 1.6 6.4 0.00 2.01 2.01 27 1009.8
20260510023025 26 316 1.6 6.4 0.00 2.01 2.01 28 1009.7
20260510022904 26 316 3.2 6.4 0.00 2.01 2.01 29 1009.7
20260510022804 26 316 3.2 6.4 0.00 2.01 2.01 30 1009.7
20260510022725 26 316 3.2 6.4 0.00 2.01 2.01 30 1009.7
20260510022604 26 316 3.2 6.4 0.00 2.01 2.01 31 1009.6
20260510022504 26 317 3.2 8.0 0.00 2.01 2.01 32 1009.6
20260510022404 26 317 3.2 8.0 0.00 2.01 2.01 33 1009.6
20260510022306 26 317 3.2 8.0 0.00 2.01 2.01 33 1009.6
20260510022204 26 317 3.2 8.0 0.00 2.01 2.01 34 1009.6
20260510022104 26 318 3.2 8.0 0.00 2.01 2.01 35 1009.7
20260510022004 26 318 3.2 8.0 0.00 2.01 2.01 35 1009.7
20260510021904 26 318 3.2 8.0 0.00 2.01 2.01 36 1009.6
20260510021804 26 318 3.2 8.0 0.00 2.01 2.01 37 1009.6
20260510021704 27 318 3.2 8.0 0.00 2.01 2.01 38 1009.6
20260510021604 27 318 3.2 8.0 0.00 2.01 2.01 38 1009.5
20260510021504 27 318 3.2 6.4 0.00 2.01 2.01 39 1009.5
20260510021404 27 318 3.2 6.4 0.00 2.01 2.01 40 1009.6
20260510021304 27 318 3.2 6.4 0.00 2.01 2.01 40 1009.5
20260510021204 27 317 3.2 6.4 0.00 2.01 2.01 42 1009.5
20260510021104 27 317 3.2 6.4 0.00 2.01 2.01 42 1009.5
20260510021004 27 317 3.2 6.4 0.00 2.01 2.01 43 1009.5
20260510020904 27 311 3.2 9.7 0.00 2.01 2.01 43 1009.5
20260510020825 27 308 3.2 9.7 0.00 2.01 2.01 44 1009.5
20260510020704 27 303 3.2 9.7 0.00 2.01 2.01 45 1009.5
20260510020604 27 295 3.2 9.7 0.00 2.01 2.01 46 1009.5
20260510020504 27 291 3.2 9.7 0.00 2.01 2.01 46 1009.4
20260510020404 27 287 3.2 9.7 0.00 2.01 2.01 47 1009.4
20260510020304 27 283 3.2 9.7 0.00 2.01 2.01 47 1009.4
20260510020204 27 276 3.2 9.7 0.00 2.01 2.01 48 1009.4
20260510020104 27 271 3.2 9.7 0.00 2.01 2.01 48 1009.4
20260510020025 27 267 3.2 9.7 0.00 2.01 2.01 49 1009.4
20260510015904 27 262 3.2 8.0 0.00 2.01 2.01 49 1009.3
20260510015804 27 262 3.2 8.0 0.00 2.01 2.01 50 1009.3
20260510015704 27 261 3.2 8.0 0.00 2.01 2.01 50 1009.2
20260510015604 27 261 3.2 8.0 0.00 2.01 2.01 50 1009.3
20260510015525 27 261 3.2 8.0 0.00 2.01 2.01 51 1009.2
20260510015404 27 261 3.2 8.0 0.00 2.01 2.01 51 1009.3
20260510015306 27 261 3.2 8.0 0.00 2.01 2.01 52 1009.2
20260510015204 27 261 3.2 8.0 0.00 2.01 2.01 52 1009.2
20260510015125 27 260 3.2 8.0 0.00 2.01 2.01 52 1009.2
20260510015004 27 260 3.2 8.0 0.00 2.01 2.01 52 1009.2
20260510014925 27 260 3.2 8.0 0.00 2.01 2.01 53 1009.2
20260510014825 27 260 3.2 8.0 0.00 2.01 2.01 53 1009.2
20260510014725 27 260 1.6 8.0 0.00 2.01 2.01 53 1009.2
20260510014604 27 259 1.6 8.0 0.00 2.01 2.01 54 1009.2
20260510014525 27 259 1.6 8.0 0.00 2.01 2.01 54 1009.2
20260510014404 27 259 1.6 4.8 0.00 2.01 2.01 54 1009.2
20260510014304 27 259 1.6 4.8 0.00 2.01 2.01 55 1009.1
20260510014204 27 259 1.6 3.2 0.00 2.01 2.01 55 1009.1
20260510014104 27 259 1.6 3.2 0.00 2.01 2.01 55 1009.1
20260510014004 27 259 1.6 3.2 0.00 2.01 2.01 56 1009.1
20260510013904 27 259 1.6 3.2 0.00 2.01 2.01 56 1009.1
20260510013804 27 259 0.0 3.2 0.00 2.01 2.01 56 1009.1
20260510013704 27 259 0.0 1.6 0.00 2.01 2.01 56 1009.1
20260510013604 28 259 1.6 1.6 0.00 2.01 2.01 56 1009.0
20260510013504 28 259 1.6 1.6 0.00 2.01 2.01 56 1009.0
20260510013425 28 259 0.0 1.6 0.00 2.01 2.01 56 1009.0
20260510013304 28 259 0.0 1.6 0.00 2.01 2.01 56 1009.0
20260510013204 28 259 0.0 1.6 0.00 2.01 2.01 56 1009.0
20260510013125 28 259 0.0 1.6 0.00 2.01 2.01 56 1009.0
20260510013004 28 259 0.0 1.6 0.00 2.01 2.01 56 1009.0
20260510012925 28 259 0.0 1.6 0.00 2.01 2.01 56 1009.0
20260510012804 28 259 0.0 1.6 0.00 2.01 2.01 56 1009.0
20260510012704 28 259 0.0 3.2 0.00 2.01 2.01 56 1009.0
20260510012604 28 259 0.0 3.2 0.00 2.01 2.01 56 1009.0
20260510012504 28 259 1.6 3.2 0.00 2.01 2.01 56 1008.9
20260510012404 28 259 1.6 3.2 0.00 2.01 2.01 56 1008.9
20260510012325 28 259 1.6 3.2 0.00 2.01 2.01 56 1008.9
20260510012204 28 259 1.6 3.2 0.00 2.01 2.01 56 1009.0
20260510012125 28 259 1.6 3.2 0.00 2.01 2.01 56 1008.9
20260510012004 28 259 1.6 3.2 0.00 2.01 2.01 56 1008.9
20260510011904 28 259 1.6 3.2 0.00 2.01 2.01 56 1008.9
20260510011804 28 259 1.6 3.2 0.00 2.01 2.01 56 1008.9
20260510011704 28 259 1.6 3.2 0.00 2.01 2.01 56 1008.9
20260510011604 28 259 1.6 3.2 0.00 2.01 2.01 56 1008.8
20260510011504 28 259 1.6 4.8 0.00 2.01 2.01 56 1008.8
20260510011404 28 259 1.6 4.8 0.00 2.01 2.01 56 1008.9
20260510011304 28 259 1.6 4.8 0.00 2.01 2.01 56 1008.8
20260510011204 28 259 1.6 4.8 0.00 2.01 2.01 56 1008.8
20260510011104 28 259 1.6 4.8 0.00 2.01 2.01 56 1008.8
20260510011004 28 259 1.6 4.8 0.00 2.01 2.01 56 1008.8
20260510010925 28 259 1.6 4.8 0.00 2.01 2.01 56 1008.8
20260510010804 28 259 1.6 4.8 0.00 2.01 2.01 56 1008.8
20260510010704 29 259 3.2 4.8 0.00 2.01 2.01 56 1008.8
20260510010604 29 259 3.2 4.8 0.00 2.01 2.01 56 1008.8
20260510010525 29 259 1.6 4.8 0.00 2.01 2.01 56 1008.8
20260510010425 29 259 1.6 4.8 0.00 2.01 2.01 56 1008.8
20260510010304 29 258 3.2 4.8 0.00 2.01 2.01 56 1008.8
20260510010204 29 258 1.6 4.8 0.00 2.01 2.01 56 1008.8
20260510010104 29 258 1.6 4.8 0.00 2.01 2.01 56 1008.8
20260510010004 29 258 1.6 4.8 0.00 2.01 2.01 56 1008.8
20260510005904 29 258 1.6 4.8 0.00 2.01 2.01 56 1008.8
20260510005804 29 258 1.6 4.8 0.00 2.01 2.01 56 1008.8
20260510005704 29 258 1.6 4.8 0.00 2.01 2.01 56 1008.8
20260510005604 29 258 1.6 4.8 0.00 2.01 2.01 56 1008.8
20260510005525 29 258 1.6 4.8 0.00 2.01 2.01 56 1008.7
20260510005404 30 258 1.6 4.8 0.00 2.01 2.01 55 1008.7
20260510005306 30 259 1.6 4.8 0.00 2.01 2.01 55 1008.8
20260510005225 30 259 1.6 4.8 0.00 2.01 2.01 55 1008.8
20260510005104 30 259 1.6 4.8 0.00 2.01 2.01 55 1008.7
20260510005004 30 259 3.2 6.4 0.00 2.01 2.01 55 1008.7
20260510004904 30 258 3.2 6.4 0.00 2.01 2.01 55 1008.7
20260510004804 30 258 3.2 8.0 0.00 2.01 2.01 55 1008.7
20260510004704 30 258 3.2 8.0 0.00 2.01 2.01 55 1008.8
20260510004625 30 258 3.2 8.0 0.00 2.01 2.01 55 1008.7
20260510004504 30 258 3.2 8.0 0.00 2.01 2.01 55 1008.7
20260510004425 30 257 3.2 8.0 0.00 2.01 2.01 55 1008.7
20260510004304 30 257 3.2 8.0 0.00 2.01 2.01 54 1008.7
20260510004225 30 257 3.2 8.0 0.00 2.01 2.01 54 1008.7
20260510004104 30 257 3.2 8.0 0.00 2.01 2.01 54 1008.7
20260510004004 30 257 3.2 8.0 0.00 2.01 2.01 54 1008.7
20260510003904 30 256 3.2 8.0 0.00 2.01 2.01 54 1008.7
20260510003825 30 256 3.2 6.4 0.00 2.01 2.01 54 1008.7
20260510003704 30 256 3.2 6.4 0.00 2.01 2.01 54 1008.7
20260510003604 30 256 3.2 6.4 0.00 2.01 2.01 54 1008.6
20260510003504 30 256 3.2 8.0 0.00 2.01 2.01 54 1008.7
20260510003404 30 256 3.2 8.0 0.00 2.01 2.01 54 1008.6
20260510003325 30 256 3.2 8.0 0.00 2.01 2.01 54 1008.7
20260510003204 30 256 3.2 8.0 0.00 2.01 2.01 54 1008.6
20260510003104 30 256 3.2 8.0 0.00 2.01 2.01 54 1008.6
20260510003004 30 256 3.2 8.0 0.00 2.01 2.01 54 1008.6
20260510002904 30 256 3.2 8.0 0.00 2.01 2.01 54 1008.6
20260510002804 30 256 3.2 8.0 0.00 2.01 2.01 54 1008.6
20260510002704 30 256 3.2 8.0 0.00 2.01 2.01 54 1008.6
20260510002604 30 256 3.2 8.0 0.00 2.01 2.01 54 1008.6
20260510002504 30 256 3.2 4.8 0.00 2.01 2.01 54 1008.6
20260510002404 30 256 1.6 4.8 0.00 2.01 2.01 54 1008.6
20260510002306 30 256 3.2 4.8 0.00 2.01 2.01 54 1008.6
20260510002204 30 256 3.2 8.0 0.00 2.01 2.01 54 1008.6
20260510002104 30 256 3.2 8.0 0.00 2.01 2.01 54 1008.6
20260510002004 30 256 3.2 8.0 0.00 2.01 2.01 54 1008.5
20260510001925 30 256 3.2 8.0 0.00 2.01 2.01 54 1008.6
20260510001804 30 255 3.2 8.0 0.00 2.01 2.01 54 1008.5
20260510001725 30 255 3.2 8.0 0.00 2.01 2.01 54 1008.5
20260510001604 30 254 3.2 8.0 0.00 2.01 2.01 54 1008.6
20260510001525 30 255 3.2 8.0 0.00 2.01 2.01 54 1008.5
20260510001404 30 254 3.2 8.0 0.00 2.01 2.01 54 1008.5
20260510001304 30 254 3.2 8.0 0.00 2.01 2.01 54 1008.6
20260510001225 30 254 3.2 8.0 0.00 2.01 2.01 54 1008.5
20260510001125 30 254 3.2 8.0 0.00 2.01 2.01 53 1008.5
20260510001025 30 254 3.2 8.0 0.00 2.01 2.01 54 1008.4
20260510000925 30 255 3.2 8.0 0.00 2.01 2.01 54 1008.4
20260510000804 30 255 3.2 8.0 0.00 2.01 2.01 54 1008.5
20260510000704 30 255 3.2 8.0 0.00 2.01 2.01 53 1008.5
20260510000604 30 255 3.2 6.4 0.00 2.01 2.01 53 1008.5
20260510000504 30 255 3.2 6.4 0.00 2.01 2.01 53 1008.4
20260510000404 30 255 3.2 6.4 0.00 2.01 2.01 53 1008.4
20260510000304 30 255 3.2 6.4 0.00 2.01 2.01 53 1008.4
20260510000204 30 255 3.2 6.4 0.00 2.01 2.01 53 1008.4
20260510000104 31 255 3.2 8.0 0.00 2.01 2.01 53 1008.3
20260510000004 31 255 3.2 8.0 0.00 2.01 2.01 53 1008.3
20260509235904 31 255 3.2 8.0 0.00 2.01 2.01 54 1008.4
20260509235804 30 255 3.2 8.0 0.00 2.01 2.01 53 1008.4
20260509235725 30 255 3.2 8.0 0.00 2.01 2.01 53 1008.3
20260509235604 30 255 3.2 8.0 0.00 2.01 2.01 53 1008.3
20260509235504 30 255 3.2 8.0 0.00 2.01 2.01 53 1008.4
20260509235404 30 255 3.2 8.0 0.00 2.01 2.01 53 1008.3
20260509235306 30 254 3.2 8.0 0.00 2.01 2.01 52 1008.3
20260509235204 30 254 3.2 8.0 0.00 2.01 2.01 52 1008.3
20260509235104 31 254 3.2 8.0 0.00 2.01 2.01 52 1008.3
20260509235004 31 253 4.8 8.0 0.00 2.01 2.01 52 1008.3
20260509234904 31 252 4.8 8.0 0.00 2.01 2.01 52 1008.3
20260509234804 31 252 4.8 8.0 0.00 2.01 2.01 52 1008.3
20260509234704 31 251 4.8 8.0 0.00 2.01 2.01 53 1008.3
20260509234604 31 251 4.8 8.0 0.00 2.01 2.01 52 1008.3
20260509234504 31 250 4.8 8.0 0.00 2.01 2.01 52 1008.3
20260509234404 31 250 4.8 8.0 0.00 2.01 2.01 52 1008.3
20260509234304 31 249 3.2 8.0 0.00 2.01 2.01 51 1008.3
20260509234204 31 249 4.8 8.0 0.00 2.01 2.01 51 1008.2
20260509234104 31 249 4.8 8.0 0.00 2.01 2.01 51 1008.3
20260509234025 31 249 4.8 8.0 0.00 2.01 2.01 51 1008.2
20260509233904 31 248 4.8 6.4 0.00 2.01 2.01 52 1008.2
20260509233804 31 248 4.8 6.4 0.00 2.01 2.01 52 1008.2
20260509233704 31 248 3.2 6.4 0.00 2.01 2.01 52 1008.2
20260509233604 31 248 3.2 6.4 0.00 2.01 2.01 52 1008.1
20260509233504 31 248 3.2 6.4 0.00 2.01 2.01 52 1008.2
20260509233404 31 247 3.2 6.4 0.00 2.01 2.01 51 1008.2
20260509233304 31 247 3.2 6.4 0.00 2.01 2.01 51 1008.1
20260509233204 31 247 3.2 6.4 0.00 2.01 2.01 51 1008.2
20260509233104 31 247 3.2 6.4 0.00 2.01 2.01 51 1008.2
20260509233004 31 246 3.2 6.4 0.00 2.01 2.01 52 1008.2
20260509232904 31 246 3.2 6.4 0.00 2.01 2.01 52 1008.1
20260509232804 31 246 3.2 8.0 0.00 2.01 2.01 51 1008.1
20260509232704 31 245 3.2 8.0 0.00 2.01 2.01 51 1008.1
20260509232604 31 245 3.2 8.0 0.00 2.01 2.01 51 1008.1
20260509232504 31 244 3.2 8.0 0.00 2.01 2.01 51 1008.1
20260509232425 31 244 3.2 8.0 0.00 2.01 2.01 51 1008.1
20260509232325 31 244 3.2 8.0 0.00 2.01 2.01 51 1008.1
20260509232204 31 243 3.2 8.0 0.00 2.01 2.01 51 1008.1
20260509232104 31 243 4.8 8.0 0.00 2.01 2.01 51 1008.1
20260509232025 31 242 4.8 8.0 0.00 2.01 2.01 51 1008.1
20260509231904 31 242 4.8 8.0 0.00 2.01 2.01 51 1008.1
20260509231804 31 241 4.8 8.0 0.00 2.01 2.01 51 1008.1
20260509231704 31 241 4.8 8.0 0.00 2.01 2.01 51 1008.1
20260509231604 31 240 4.8 8.0 0.00 2.01 2.01 51 1008.1
20260509231525 31 240 4.8 8.0 0.00 2.01 2.01 51 1008.1
20260509231404 31 240 4.8 8.0 0.00 2.01 2.01 51 1008.1
20260509231325 31 239 4.8 8.0 0.00 2.01 2.01 51 1008.1
20260509231204 31 239 4.8 8.0 0.00 2.01 2.01 51 1008.1
20260509231104 31 239 3.2 8.0 0.00 2.01 2.01 51 1008.1
20260509231004 31 238 3.2 8.0 0.00 2.01 2.01 50 1008.2
20260509230904 31 237 3.2 8.0 0.00 2.01 2.01 50 1008.1
20260509230804 31 237 3.2 8.0 0.00 2.01 2.01 50 1008.2
20260509230704 31 236 3.2 8.0 0.00 2.01 2.01 50 1008.2
20260509230604 31 236 3.2 8.0 0.00 2.01 2.01 50 1008.2
20260509230504 31 235 3.2 8.0 0.00 2.01 2.01 51 1008.2
20260509230404 31 234 3.2 8.0 0.00 2.01 2.01 51 1008.2
20260509230304 31 234 3.2 6.4 0.00 2.01 2.01 51 1008.1
20260509230225 31 233 3.2 6.4 0.00 2.01 2.01 51 1008.1
20260509230104 31 233 3.2 6.4 0.00 2.01 2.01 52 1008.1
20260509230025 31 233 3.2 6.4 0.00 2.01 2.01 51 1008.1
20260509225904 31 233 3.2 6.4 0.00 2.01 2.01 51 1008.1
20260509225804 31 233 3.2 6.4 0.00 2.01 2.01 51 1008.2
20260509225704 31 233 3.2 6.4 0.00 2.01 2.01 51 1008.1
20260509225625 31 233 3.2 6.4 0.00 2.01 2.01 51 1008.1
20260509225504 31 234 3.2 6.4 0.00 2.01 2.01 50 1008.1
20260509225404 31 234 3.2 6.4 0.00 2.01 2.01 51 1008.2
20260509225306 31 234 3.2 6.4 0.00 2.01 2.01 51 1008.2
20260509225204 31 235 3.2 6.4 0.00 2.01 2.01 50 1008.1
20260509225104 31 235 3.2 6.4 0.00 2.01 2.01 51 1008.1
20260509225004 31 235 3.2 6.4 0.00 2.01 2.01 51 1008.1
20260509224904 31 236 3.2 6.4 0.00 2.01 2.01 51 1008.1
20260509224804 31 236 3.2 6.4 0.00 2.01 2.01 51 1008.1
20260509224704 31 236 3.2 6.4 0.00 2.01 2.01 52 1008.1
20260509224604 31 236 3.2 6.4 0.00 2.01 2.01 51 1008.2
20260509224504 31 235 3.2 8.0 0.00 2.01 2.01 51 1008.2
20260509224404 31 234 3.2 8.0 0.00 2.01 2.01 51 1008.2
20260509224304 31 233 3.2 8.0 0.00 2.01 2.01 51 1008.2
20260509224204 31 231 3.2 8.0 0.00 2.01 2.01 51 1008.2
20260509224104 31 230 4.8 9.7 0.00 2.01 2.01 50 1008.2
20260509224004 31 228 4.8 9.7 0.00 2.01 2.01 50 1008.3
20260509223904 31 226 4.8 9.7 0.00 2.01 2.01 50 1008.3
20260509223804 31 223 3.2 9.7 0.00 2.01 2.01 51 1008.3
20260509223704 31 221 3.2 9.7 0.00 2.01 2.01 51 1008.3
20260509223604 31 218 3.2 9.7 0.00 2.01 2.01 51 1008.3
20260509223504 31 215 3.2 9.7 0.00 2.01 2.01 51 1008.3
20260509223404 31 214 3.2 9.7 0.00 2.01 2.01 50 1008.3
20260509223325 31 214 3.2 9.7 0.00 2.01 2.01 51 1008.3
20260509223204 31 213 3.2 9.7 0.00 2.01 2.01 50 1008.3
20260509223104 31 219 3.2 11.3 0.00 2.01 2.01 50 1008.3
20260509223004 31 224 3.2 11.3 0.00 2.01 2.01 50 1008.2
20260509222904 31 228 3.2 11.3 0.00 2.01 2.01 51 1008.3
20260509222804 31 235 3.2 11.3 0.00 2.01 2.01 51 1008.2
20260509222704 31 244 3.2 11.3 0.00 2.01 2.01 50 1008.2
20260509222625 31 248 3.2 11.3 0.00 2.01 2.01 51 1008.2
20260509222504 31 268 3.2 11.3 0.00 2.01 2.01 50 1008.2
20260509222404 31 285 3.2 11.3 0.00 2.01 2.01 50 1008.2
20260509222307 31 305 3.2 11.3 0.00 2.01 2.01 50 1008.2
20260509222204 31 325 3.2 11.3 0.00 2.01 2.01 50 1008.2
20260509222104 31 343 3.2 8.0 0.00 2.01 2.01 51 1008.2
20260509222004 31 351 3.2 8.0 0.00 2.01 2.01 50 1008.2
20260509221904 31 357 3.2 8.0 0.00 2.01 2.01 51 1008.2
20260509221804 31 3 3.2 8.0 0.00 2.01 2.01 51 1008.1
20260509221725 31 6 3.2 8.0 0.00 2.01 2.01 51 1008.2
20260509221604 31 8 3.2 8.0 0.00 2.01 2.01 50 1008.1
20260509221504 31 11 3.2 8.0 0.00 2.01 2.01 50 1008.1
20260509221404 31 16 3.2 8.0 0.00 2.01 2.01 50 1008.1
20260509221304 31 20 3.2 8.0 0.00 2.01 2.01 50 1008.1
20260509221225 31 25 3.2 8.0 0.00 2.01 2.01 51 1008.1
20260509221104 31 26 3.2 8.0 0.00 2.01 2.01 50 1008.1
20260509221004 31 27 3.2 8.0 0.00 2.01 2.01 50 1008.1
20260509220925 31 27 3.2 8.0 0.00 2.01 2.01 50 1008.1
20260509220804 31 28 3.2 8.0 0.00 2.01 2.01 50 1008.1
20260509220704 31 28 3.2 6.4 0.00 2.01 2.01 50 1008.1
20260509220604 31 28 3.2 6.4 0.00 2.01 2.01 49 1008.0
20260509220504 31 28 3.2 6.4 0.00 2.01 2.01 49 1008.1
20260509220404 31 28 3.2 8.0 0.00 2.01 2.01 49 1008.1
20260509220325 31 29 3.2 8.0 0.00 2.01 2.01 49 1008.1
20260509220204 31 29 3.2 8.0 0.00 2.01 2.01 49 1008.2
20260509220104 31 31 3.2 9.7 0.00 2.01 2.01 49 1008.2
20260509220004 31 32 3.2 9.7 0.00 2.01 2.01 49 1008.2
20260509215925 31 33 3.2 9.7 0.00 2.01 2.01 49 1008.2
20260509215825 31 36 3.2 9.7 0.00 2.01 2.01 49 1008.2
20260509215704 31 40 3.2 9.7 0.00 2.01 2.01 49 1008.2
20260509215604 31 42 3.2 9.7 0.00 2.01 2.01 49 1008.3
20260509215504 31 46 4.8 9.7 0.00 2.01 2.01 48 1008.3
20260509215425 31 48 4.8 9.7 0.00 2.01 2.01 49 1008.2
20260509215306 31 53 4.8 9.7 0.00 2.01 2.01 49 1008.2
20260509215204 31 56 3.2 9.7 0.00 2.01 2.01 49 1008.2
20260509215104 31 58 3.2 8.0 0.00 2.01 2.01 49 1008.2
20260509215004 31 58 3.2 8.0 0.00 2.01 2.01 49 1008.3
20260509214904 31 58 3.2 8.0 0.00 2.01 2.01 49 1008.3
20260509214804 31 57 3.2 8.0 0.00 2.01 2.01 49 1008.3
20260509214704 31 57 3.2 8.0 0.00 2.01 2.01 49 1008.3
20260509214604 31 57 3.2 8.0 0.00 2.01 2.01 48 1008.3
20260509214504 31 57 3.2 8.0 0.00 2.01 2.01 47 1008.3
20260509214425 31 57 3.2 8.0 0.00 2.01 2.01 49 1008.3
20260509214304 31 57 3.2 6.4 0.00 2.01 2.01 49 1008.3
20260509214204 31 57 3.2 6.4 0.00 2.01 2.01 48 1008.3
20260509214104 31 57 3.2 6.4 0.00 2.01 2.01 48 1008.3
20260509214004 31 57 3.2 6.4 0.00 2.01 2.01 47 1008.3
20260509213904 31 57 3.2 4.8 0.00 2.01 2.01 48 1008.4
20260509213804 31 57 3.2 4.8 0.00 2.01 2.01 47 1008.4
20260509213704 31 57 3.2 4.8 0.00 2.01 2.01 47 1008.4
20260509213604 31 57 3.2 6.4 0.00 2.01 2.01 48 1008.4
20260509213504 31 57 3.2 6.4 0.00 2.01 2.01 48 1008.4
20260509213404 30 56 3.2 8.0 0.00 2.01 2.01 48 1008.5
20260509213304 30 50 3.2 9.7 0.00 2.01 2.01 49 1008.5
20260509213204 30 46 3.2 9.7 0.00 2.01 2.01 48 1008.5
20260509213125 30 37 3.2 9.7 0.00 2.01 2.01 48 1008.5
20260509213004 30 4 3.2 9.7 0.00 2.01 2.01 47 1008.5
20260509212904 31 338 3.2 9.7 0.00 2.01 2.01 47 1008.5
20260509212804 31 318 3.2 9.7 0.00 2.01 2.01 48 1008.6
20260509212704 31 312 3.2 9.7 0.00 2.01 2.01 47 1008.6
20260509212604 31 303 4.8 9.7 0.00 2.01 2.01 47 1008.6
20260509212504 30 302 4.8 9.7 0.00 2.01 2.01 47 1008.6
20260509212404 30 297 4.8 9.7 0.00 2.01 2.01 47 1008.7
20260509212306 30 301 4.8 9.7 0.00 2.01 2.01 47 1008.6
20260509212204 30 308 4.8 9.7 0.00 2.01 2.01 47 1008.7
20260509212104 30 322 4.8 9.7 0.00 2.01 2.01 46 1008.7
20260509212004 30 328 3.2 9.7 0.00 2.01 2.01 46 1008.7
20260509211904 30 331 3.2 9.7 0.00 2.01 2.01 46 1008.7
20260509211804 30 333 3.2 9.7 0.00 2.01 2.01 46 1008.7
20260509211704 30 344 3.2 9.7 0.00 2.01 2.01 45 1008.7
20260509211604 30 352 3.2 9.7 0.00 2.01 2.01 45 1008.7
20260509211504 30 359 3.2 9.7 0.00 2.01 2.01 45 1008.7
20260509211425 30 3 3.2 9.7 0.00 2.01 2.01 44 1008.7
20260509211304 30 10 3.2 9.7 0.00 2.01 2.01 44 1008.7
20260509211204 30 343 3.2 9.7 0.00 2.01 2.01 43 1008.7
20260509211104 30 295 3.2 9.7 0.00 2.01 2.01 43 1008.7
20260509211004 30 287 3.2 9.7 0.00 2.01 2.01 42 1008.7
20260509210904 30 270 3.2 9.7 0.00 2.01 2.01 42 1008.8
20260509210804 30 267 3.2 9.7 0.00 2.01 2.01 42 1008.8
20260509210704 30 258 3.2 9.7 0.00 2.01 2.01 42 1008.8
20260509210604 30 255 1.6 9.7 0.00 2.01 2.01 42 1008.9
20260509210504 29 246 1.6 9.7 0.00 2.01 2.01 42 1008.9
20260509210404 29 245 1.6 9.7 0.00 2.01 2.01 42 1009.0
20260509210304 28 243 1.6 9.7 0.00 2.01 2.01 42 1009.0
20260509210225 28 242 1.6 9.7 0.00 2.01 2.01 41 1009.0
20260509210104 28 241 1.6 9.7 0.00 2.01 2.01 40 1009.0
20260509210004 28 240 1.6 9.7 0.03 2.01 2.01 32 1008.9
20260509205904 28 237 1.6 9.7 0.03 2.01 2.01 32 1009.0
20260509205804 27 232 1.6 9.7 0.03 2.01 2.01 17 1008.9
20260509205725 27 231 1.6 9.7 0.03 2.01 2.01 17 1008.9
20260509205604 27 231 1.6 9.7 0.03 2.01 2.01 17 1008.9
20260509205504 27 231 1.6 9.7 0.05 2.01 2.01 4 1008.9
20260509205404 26 231 1.6 9.7 0.08 2.01 2.01 1 1008.9
20260509205325 26 230 1.6 9.7 0.08 2.01 2.01 1 1008.9
20260509205204 25 229 1.6 9.7 0.08 2.01 2.01 1 1008.9
20260509205104 25 228 1.6 9.7 0.13 2.01 2.01 1 1008.9
20260509205003 24 226 1.6 9.7 0.20 2.01 2.01 1 1009.0
20260509204904 24 217 0.0 9.7 0.30 2.01 2.01 1 1009.0
20260509204804 23 207 0.0 3.2 0.38 2.01 2.01 1 1009.0
20260509204704 23 0 0.0 0.0 0.41 2.01 2.01 1 1009.0
20260509204604 22 0 0.0 0.0 0.43 2.01 2.01 1 1009.0
20260509204504 22 0 0.0 0.0 0.46 2.01 2.01 1 1009.1
20260509204404 22 0 0.0 0.0 0.48 2.01 2.01 1 1009.1
20260509204304 22 0 0.0 0.0 0.64 2.01 2.01 1 1009.1
20260509204225 22 0 0.0 0.0 0.69 2.01 2.01 1 1009.1
20260509204125 23 0 0.0 0.0 0.74 2.01 2.01 1 1009.1
20260509204004 23 0 0.0 0.0 0.81 2.01 2.01 1 1009.1
20260509203904 23 0 0.0 0.0 0.89 2.01 2.01 1 1009.1
20260509203804 23 0 0.0 0.0 0.99 2.01 2.01 1 1009.1
20260509203704 23 0 0.0 0.0 1.09 2.01 2.01 1 1009.1
20260509203625 22 0 0.0 0.0 1.19 2.01 2.01 1 1009.1
20260509203504 23 0 0.0 0.0 1.30 2.01 2.01 1 1009.1
20260509203404 23 0 0.0 0.0 1.35 2.01 2.01 1 1009.2
20260509203304 23 0 0.0 0.0 1.50 2.01 2.01 1 1009.2
20260509203204 23 0 0.0 0.0 1.63 2.01 2.01 1 1009.2
20260509203104 23 0 0.0 0.0 1.65 2.01 2.01 1 1009.2
20260509203004 23 0 0.0 0.0 1.68 2.01 2.01 1 1009.2
20260509202904 23 0 0.0 0.0 1.73 2.01 2.01 1 1009.2
20260509202804 23 124 0.0 3.2 1.75 2.01 2.01 1 1009.2
20260509202704 23 121 1.6 6.4 1.83 2.01 2.01 1 1009.2
20260509202604 23 113 1.6 8.0 1.88 2.01 2.01 1 1009.2
20260509202503 23 107 1.6 8.0 1.88 2.01 2.01 1 1009.2
20260509202404 22 102 1.6 8.0 1.91 2.01 2.01 1 1009.2
20260509202306 22 102 1.6 8.0 1.91 2.01 2.01 1 1009.2
20260509202204 22 102 1.6 8.0 1.93 2.01 2.01 1 1009.1
20260509202104 21 100 3.2 8.0 1.96 2.01 2.01 1 1009.1
20260509202004 21 97 3.2 8.0 1.98 2.01 2.01 1 1009.1
20260509201904 21 95 3.2 8.0 1.98 2.01 2.01 1 1009.2
20260509201804 21 92 3.2 8.0 2.01 2.01 2.01 1 1009.2
20260509201725 22 88 3.2 8.0 2.01 2.01 2.01 1 1009.2
20260509201604 21 82 3.2 6.4 2.01 2.01 2.01 1 1009.2
20260509201504 21 81 3.2 4.8 2.01 2.01 2.01 1 1009.2
20260509201404 21 80 3.2 4.8 2.01 2.01 2.01 1 1009.3
20260509201304 21 79 3.2 4.8 2.01 2.01 2.01 1 1009.3
20260509201204 21 79 3.2 6.4 2.01 2.01 2.01 1 1009.4
20260509201125 20 78 3.2 6.4 2.01 2.01 2.01 1 1009.4
20260509201004 20 76 3.2 8.0 2.01 2.01 2.01 1 1009.5
20260509200904 20 74 3.2 8.0 2.01 2.01 2.01 1 1009.5
20260509200804 20 72 3.2 8.0 2.01 2.01 2.01 1 1009.6
20260509200725 20 70 3.2 8.0 2.01 2.01 2.01 1 1009.7
20260509200625 19 67 4.8 9.7 2.01 2.01 2.01 1 1009.8
20260509200504 19 56 4.8 11.3 2.01 2.01 2.01 1 1009.9
20260509200404 19 39 4.8 14.5 2.01 2.01 2.01 1 1010.0
20260509200304 19 25 4.8 14.5 2.01 2.01 2.01 1 1010.1
20260509200204 19 10 4.8 14.5 2.01 2.01 2.01 1 1010.1
20260509200104 19 343 6.4 14.5 2.01 2.01 2.01 1 1010.1
20260509200025 19 327 6.4 14.5 1.98 1.98 1.98 1 1010.2
20260509195904 19 314 6.4 14.5 1.98 1.98 1.98 1 1010.2
20260509195804 19 315 6.4 14.5 1.98 1.98 1.98 1 1010.3
20260509195704 19 314 6.4 14.5 1.98 1.98 1.98 1 1010.3
20260509195625 19 313 6.4 14.5 1.98 1.98 1.98 1 1010.4
20260509195504 19 310 4.8 14.5 1.96 1.96 1.96 1 1010.5
20260509195425 19 317 4.8 14.5 1.93 1.93 1.96 1 1010.7
20260509195306 19 344 4.8 12.9 1.93 1.93 1.93 1 1010.8
20260509195204 19 26 4.8 12.9 1.93 1.93 1.93 1 1011.0
20260509195125 19 37 3.2 9.7 1.88 1.88 1.91 1 1011.1
20260509195004 19 53 3.2 6.4 1.80 1.80 1.80 1 1011.3
20260509194925 19 55 4.8 9.7 1.70 1.70 1.75 1 1011.3
20260509194804 19 52 4.8 16.1 1.63 1.63 1.63 1 1011.3
20260509194704 19 49 6.4 20.9 1.60 1.60 1.60 1 1011.3
20260509194604 19 49 8.0 25.7 1.57 1.57 1.57 1 1011.3
20260509194504 19 52 9.7 27.4 1.55 1.55 1.57 1 1011.3
20260509194404 20 52 11.3 27.4 1.52 1.52 1.52 1 1011.2
20260509194304 20 54 11.3 27.4 1.37 1.37 1.37 1 1011.2
20260509194204 20 54 11.3 27.4 1.32 1.32 1.32 1 1011.0
20260509194125 20 55 12.9 27.4 1.27 1.27 1.30 1 1011.0
20260509194004 20 56 12.9 27.4 1.19 1.19 1.19 1 1011.1
20260509193904 20 57 12.9 27.4 1.12 1.12 1.12 1 1011.1
20260509193804 21 60 12.9 27.4 1.02 1.02 1.02 1 1011.2
20260509193704 21 62 11.3 27.4 0.91 0.91 0.91 1 1011.4
20260509193604 22 65 9.7 27.4 0.81 0.81 0.84 1 1011.4
20260509193504 22 66 9.7 24.1 0.71 0.71 0.76 33 1011.4
20260509193404 23 67 8.0 24.1 0.66 0.66 0.66 33 1011.2
20260509193304 24 66 8.0 14.5 0.51 0.51 0.51 33 1011.1
20260509193204 24 67 8.0 14.5 0.38 0.38 0.41 37 1011.0
20260509193104 24 70 8.0 14.5 0.36 0.36 0.36 36 1010.9
20260509193004 25 68 9.7 24.1 0.33 0.33 0.33 36 1010.8
20260509192904 25 66 9.7 27.4 0.28 0.28 0.28 37 1010.7
20260509192804 25 65 11.3 30.6 0.25 0.25 0.25 38 1010.6
20260509192704 25 59 11.3 30.6 0.18 0.18 0.18 40 1010.6
20260509192625 25 57 11.3 30.6 0.13 0.13 0.15 40 1010.4
20260509192504 26 55 11.3 30.6 0.13 0.13 0.13 40 1010.4
20260509192404 26 56 11.3 30.6 0.10 0.10 0.10 40 1010.3
20260509192306 26 57 9.7 30.6 0.10 0.10 0.10 42 1010.2
20260509192204 27 55 9.7 30.6 0.08 0.08 0.08 42 1010.2
20260509192104 27 51 9.7 30.6 0.05 0.05 0.05 42 1010.3
20260509192004 27 43 8.0 30.6 0.03 0.03 0.03 40 1010.2
20260509191904 28 32 8.0 30.6 0.03 0.03 0.03 40 1010.1
20260509191804 28 12 6.4 19.3 0.00 0.00 0.00 39 1010.1
20260509191704 28 2 6.4 16.1 0.00 0.00 0.00 36 1010.0
20260509191604 28 353 6.4 16.1 0.00 0.00 0.00 36 1009.9
20260509191504 28 341 6.4 16.1 0.00 0.00 0.00 37 1009.7
20260509191404 28 332 6.4 16.1 0.00 0.00 0.00 38 1009.6
20260509191304 28 325 6.4 16.1 0.00 0.00 0.00 38 1009.6
20260509191204 28 319 6.4 16.1 0.00 0.00 0.00 39 1009.6
20260509191104 28 315 6.4 16.1 0.00 0.00 0.00 40 1009.5
20260509191004 28 313 4.8 16.1 0.00 0.00 0.00 41 1009.6
20260509190904 29 311 4.8 16.1 0.00 0.00 0.00 42 1009.5
20260509190804 29 304 4.8 16.1 0.00 0.00 0.00 42 1009.6
20260509190704 29 304 4.8 16.1 0.00 0.00 0.00 42 1009.6
20260509190604 29 299 4.8 11.3 0.00 0.00 0.00 42 1009.7
20260509190504 29 297 4.8 11.3 0.00 0.00 0.00 42 1009.7
20260509190404 30 302 4.8 11.3 0.00 0.00 0.00 42 1009.6
20260509190304 30 316 4.8 11.3 0.00 0.00 0.00 42 1009.6
20260509190204 30 329 4.8 11.3 0.00 0.00 0.00 43 1009.6
20260509190104 30 340 4.8 11.3 0.00 0.00 0.00 43 1009.6
20260509190004 30 349 4.8 11.3 0.00 0.00 0.00 43 1009.5
20260509185904 30 353 4.8 11.3 0.00 0.00 0.00 44 1009.5
20260509185825 30 348 4.8 11.3 0.00 0.00 0.00 44 1009.5
20260509185704 30 349 4.8 12.9 0.00 0.00 0.00 44 1009.6
20260509185604 30 360 4.8 12.9 0.00 0.00 0.00 44 1009.6
20260509185504 30 13 4.8 12.9 0.00 0.00 0.00 44 1009.6
20260509185404 30 21 6.4 12.9 0.00 0.00 0.00 44 1009.7
20260509185306 30 20 4.8 12.9 0.00 0.00 0.00 44 1009.7
20260509185204 30 13 4.8 12.9 0.00 0.00 0.00 44 1009.7
20260509185104 30 5 6.4 12.9 0.00 0.00 0.00 44 1009.8
20260509185025 30 5 6.4 12.9 0.00 0.00 0.00 44 1009.8
20260509184904 30 11 6.4 14.5 0.00 0.00 0.00 44 1009.9
20260509184804 31 19 6.4 19.3 0.00 0.00 0.00 44 1009.9
20260509184704 31 27 6.4 19.3 0.00 0.00 0.00 44 1009.9
20260509184604 31 29 8.0 19.3 0.00 0.00 0.00 44 1009.9
20260509184504 31 29 8.0 19.3 0.00 0.00 0.00 44 1009.9
20260509184404 31 25 8.0 19.3 0.00 0.00 0.00 44 1009.9
20260509184304 31 26 8.0 19.3 0.00 0.00 0.00 44 1009.9
20260509184204 31 34 8.0 19.3 0.00 0.00 0.00 43 1010.0
20260509184104 31 38 9.7 19.3 0.00 0.00 0.00 43 1010.0
20260509184004 31 41 8.0 19.3 0.00 0.00 0.00 43 1010.0
20260509183925 31 40 8.0 19.3 0.00 0.00 0.00 43 1010.0
20260509183804 31 42 9.7 19.3 0.00 0.00 0.00 43 1009.9
20260509183704 31 41 9.7 19.3 0.00 0.00 0.00 43 1009.9
20260509183625 31 40 8.0 19.3 0.00 0.00 0.00 43 1009.9
20260509183504 31 42 8.0 19.3 0.00 0.00 0.00 43 1010.0
20260509183404 31 46 8.0 17.7 0.00 0.00 0.00 43 1010.1
20260509183325 31 45 9.7 17.7 0.00 0.00 0.00 43 1010.1
20260509183204 31 43 9.7 17.7 0.00 0.00 0.00 43 1010.2
20260509183125 31 43 8.0 17.7 0.00 0.00 0.00 42 1010.2
20260509183004 31 40 8.0 17.7 0.00 0.00 0.00 43 1010.2
20260509182925 31 41 8.0 17.7 0.00 0.00 0.00 42 1010.2
20260509182804 31 42 6.4 17.7 0.00 0.00 0.00 43 1010.2
20260509182704 31 45 6.4 17.7 0.00 0.00 0.00 43 1010.2
20260509182604 31 48 6.4 14.5 0.00 0.00 0.00 42 1010.2
20260509182504 31 47 6.4 14.5 0.00 0.00 0.00 43 1010.2
20260509182404 31 43 6.4 14.5 0.00 0.00 0.00 43 1010.3
20260509182306 31 41 6.4 14.5 0.00 0.00 0.00 42 1010.3
20260509182204 31 40 6.4 14.5 0.00 0.00 0.00 42 1010.4
20260509182104 31 38 6.4 14.5 0.00 0.00 0.00 42 1010.3
20260509182003 31 35 4.8 14.5 0.00 0.00 0.00 42 1010.4
20260509181904 31 31 4.8 14.5 0.00 0.00 0.00 41 1010.4
20260509181804 31 27 4.8 14.5 0.00 0.00 0.00 42 1010.5
20260509181704 31 20 4.8 14.5 0.00 0.00 0.00 42 1010.5
20260509181604 31 14 4.8 14.5 0.00 0.00 0.00 42 1010.5
20260509181504 31 10 4.8 14.5 0.00 0.00 0.00 42 1010.5
20260509181404 31 3 4.8 14.5 0.00 0.00 0.00 42 1010.4
20260509181325 31 7 4.8 14.5 0.00 0.00 0.00 42 1010.5
20260509181225 31 5 4.8 14.5 0.00 0.00 0.00 42 1010.4
20260509181104 31 7 4.8 11.3 0.00 0.00 0.00 42 1010.4
20260509181004 31 14 4.8 11.3 0.00 0.00 0.00 42 1010.4
20260509180904 31 22 4.8 11.3 0.00 0.00 0.00 42 1010.4
20260509180825 31 27 4.8 11.3 0.00 0.00 0.00 41 1010.5
20260509180704 31 34 4.8 11.3 0.00 0.00 0.00 41 1010.5
20260509180604 31 40 6.4 11.3 0.00 0.00 0.00 41 1010.5
20260509180504 31 47 6.4 11.3 0.00 0.00 0.00 41 1010.5
20260509180404 31 54 6.4 11.3 0.00 0.00 0.00 41 1010.5
20260509180304 30 58 6.4 16.1 0.00 0.00 0.00 40 1010.5
20260509180204 30 61 4.8 16.1 0.00 0.00 0.00 41 1010.5
20260509180104 30 63 4.8 16.1 0.00 0.00 0.00 41 1010.5
20260509180004 30 69 4.8 16.1 0.00 0.00 0.00 41 1010.5
20260509175904 30 69 4.8 16.1 0.00 0.00 0.00 42 1010.6
20260509175804 30 72 4.8 16.1 0.00 0.00 0.00 42 1010.6
20260509175725 30 71 4.8 16.1 0.00 0.00 0.00 41 1010.5
20260509175604 30 70 6.4 16.1 0.00 0.00 0.00 41 1010.6
20260509175525 30 68 6.4 16.1 0.00 0.00 0.00 41 1010.6
20260509175404 31 68 6.4 16.1 0.00 0.00 0.00 40 1010.6
20260509175306 31 71 6.4 14.5 0.00 0.00 0.00 40 1010.6
20260509175225 31 69 6.4 14.5 0.00 0.00 0.00 40 1010.6
20260509175104 30 65 6.4 14.5 0.00 0.00 0.00 40 1010.6
20260509175004 30 60 8.0 14.5 0.00 0.00 0.00 41 1010.6
20260509174904 30 58 8.0 14.5 0.00 0.00 0.00 41 1010.7
20260509174804 30 58 8.0 14.5 0.00 0.00 0.00 41 1010.7
20260509174704 31 58 6.4 14.5 0.00 0.00 0.00 41 1010.7
20260509174604 31 58 6.4 14.5 0.00 0.00 0.00 41 1010.7
20260509174504 31 60 6.4 12.9 0.00 0.00 0.00 41 1010.7
20260509174404 31 59 6.4 12.9 0.00 0.00 0.00 40 1010.7
20260509174325 31 58 6.4 12.9 0.00 0.00 0.00 40 1010.7
20260509174204 31 56 4.8 12.9 0.00 0.00 0.00 39 1010.6
20260509174104 31 60 4.8 12.9 0.00 0.00 0.00 39 1010.7
20260509174004 31 61 4.8 11.3 0.00 0.00 0.00 39 1010.7
20260509173925 31 62 4.8 11.3 0.00 0.00 0.00 39 1010.7
20260509173804 31 62 4.8 11.3 0.00 0.00 0.00 38 1010.8
20260509173704 31 60 4.8 11.3 0.00 0.00 0.00 38 1010.8
20260509173604 31 59 4.8 11.3 0.00 0.00 0.00 37 1010.9
20260509173525 31 58 4.8 11.3 0.00 0.00 0.00 37 1010.9
20260509173425 31 57 4.8 11.3 0.00 0.00 0.00 37 1011.0
20260509173304 30 58 4.8 11.3 0.00 0.00 0.00 37 1011.0
20260509173204 30 57 4.8 11.3 0.00 0.00 0.00 37 1011.0
20260509173104 30 55 6.4 14.5 0.00 0.00 0.00 37 1011.0
20260509173004 30 53 6.4 14.5 0.00 0.00 0.00 36 1011.1
20260509172904 30 50 6.4 14.5 0.00 0.00 0.00 36 1011.0
20260509172804 30 50 6.4 14.5 0.00 0.00 0.00 36 1011.1
20260509172704 30 51 4.8 14.5 0.00 0.00 0.00 36 1011.1
20260509172625 30 50 4.8 14.5 0.00 0.00 0.00 35 1011.2
20260509172525 30 53 4.8 14.5 0.00 0.00 0.00 35 1011.1
20260509172404 30 58 4.8 14.5 0.00 0.00 0.00 35 1011.1
20260509172306 30 58 4.8 14.5 0.00 0.00 0.00 35 1011.1
20260509172204 30 61 4.8 14.5 0.00 0.00 0.00 35 1011.2
20260509172125 30 68 3.2 12.9 0.00 0.00 0.00 35 1011.1
20260509172004 30 80 3.2 12.9 0.00 0.00 0.00 34 1011.1
20260509171904 30 92 3.2 8.0 0.00 0.00 0.00 34 1011.1
20260509171804 30 95 3.2 9.7 0.00 0.00 0.00 35 1011.1
20260509171704 30 89 3.2 9.7 0.00 0.00 0.00 35 1011.2
20260509171604 30 87 3.2 9.7 0.00 0.00 0.00 34 1011.2
20260509171504 30 86 3.2 9.7 0.00 0.00 0.00 33 1011.2
20260509171404 30 87 3.2 9.7 0.00 0.00 0.00 32 1011.2
20260509171304 30 89 4.8 9.7 0.00 0.00 0.00 32 1011.2
20260509171204 30 94 4.8 9.7 0.00 0.00 0.00 32 1011.2
20260509171103 30 95 4.8 9.7 0.00 0.00 0.00 31 1011.2
20260509171004 30 99 3.2 9.7 0.00 0.00 0.00 31 1011.2
20260509170904 30 101 4.8 9.7 0.00 0.00 0.00 31 1011.2
20260509170804 30 106 3.2 11.3 0.00 0.00 0.00 30 1011.3
20260509170704 30 107 3.2 11.3 0.00 0.00 0.00 28 1011.3
20260509170604 29 108 3.2 11.3 0.00 0.00 0.00 28 1011.2
20260509170504 29 105 3.2 11.3 0.00 0.00 0.00 28 1011.3
20260509170404 29 103 3.2 11.3 0.00 0.00 0.00 27 1011.3
20260509170304 29 96 4.8 11.3 0.00 0.00 0.00 28 1011.2
20260509170204 29 87 4.8 17.7 0.00 0.00 0.00 26 1011.2
20260509170104 29 83 4.8 17.7 0.00 0.00 0.00 27 1011.2
20260509170025 29 81 4.8 17.7 0.00 0.00 0.00 27 1011.3
20260509165904 29 77 4.8 17.7 0.00 0.00 0.00 25 1011.2
20260509165804 28 73 4.8 17.7 0.00 0.00 0.00 26 1011.2
20260509165704 28 71 4.8 17.7 0.00 0.00 0.00 25 1011.3
20260509165625 28 70 6.4 17.7 0.00 0.00 0.00 25 1011.2
20260509165504 28 69 4.8 17.7 0.00 0.00 0.00 25 1011.2
20260509165404 28 69 6.4 17.7 0.00 0.00 0.00 24 1011.2
20260509165306 28 68 6.4 17.7 0.00 0.00 0.00 23 1011.2
20260509165204 28 67 4.8 14.5 0.00 0.00 0.00 24 1011.2
20260509165104 28 66 6.4 14.5 0.00 0.00 0.00 23 1011.2
20260509165004 28 67 6.4 14.5 0.00 0.00 0.00 22 1011.2
20260509164904 28 67 6.4 14.5 0.00 0.00 0.00 23 1011.2
20260509164804 28 68 6.4 14.5 0.00 0.00 0.00 23 1011.2
20260509164704 28 70 4.8 14.5 0.00 0.00 0.00 22 1011.2
20260509164604 28 71 4.8 14.5 0.00 0.00 0.00 21 1011.2
20260509164504 28 71 4.8 14.5 0.00 0.00 0.00 19 1011.2
20260509164404 28 71 4.8 14.5 0.00 0.00 0.00 19 1011.2
20260509164304 28 75 4.8 12.9 0.00 0.00 0.00 19 1011.2
20260509164204 28 77 4.8 12.9 0.00 0.00 0.00 17 1011.3
20260509164104 28 80 4.8 12.9 0.00 0.00 0.00 17 1011.3
20260509164004 28 79 4.8 12.9 0.00 0.00 0.00 15 1011.3
20260509163904 28 77 6.4 16.1 0.00 0.00 0.00 16 1011.3
20260509163825 28 73 6.4 16.1 0.00 0.00 0.00 16 1011.3
20260509163704 28 73 6.4 16.1 0.00 0.00 0.00 15 1011.4
20260509163604 28 74 8.0 16.1 0.00 0.00 0.00 16 1011.4
20260509163504 28 74 8.0 16.1 0.00 0.00 0.00 17 1011.4
20260509163425 28 73 8.0 16.1 0.00 0.00 0.00 16 1011.5
20260509163304 28 68 8.0 16.1 0.00 0.00 0.00 16 1011.5
20260509163204 28 65 8.0 16.1 0.00 0.00 0.00 17 1011.5
20260509163104 28 62 8.0 16.1 0.00 0.00 0.00 18 1011.5
20260509163004 28 59 8.0 16.1 0.00 0.00 0.00 18 1011.5
20260509162925 28 55 8.0 16.1 0.00 0.00 0.00 16 1011.4
20260509162804 28 53 8.0 14.5 0.00 0.00 0.00 14 1011.4
20260509162703 28 49 8.0 14.5 0.00 0.00 0.00 16 1011.4
20260509162604 28 43 6.4 14.5 0.00 0.00 0.00 12 1011.4
20260509162504 28 38 6.4 12.9 0.00 0.00 0.00 12 1011.4
20260509162404 28 35 8.0 12.9 0.00 0.00 0.00 13 1011.4
20260509162307 28 35 8.0 12.9 0.00 0.00 0.00 12 1011.4
20260509162204 28 38 8.0 12.9 0.00 0.00 0.00 11 1011.4
20260509162125 28 40 8.0 14.5 0.00 0.00 0.00 10 1011.4
20260509162004 28 42 8.0 14.5 0.00 0.00 0.00 10 1011.3
20260509161925 28 44 8.0 17.7 0.00 0.00 0.00 10 1011.3
20260509161804 27 46 8.0 22.5 0.00 0.00 0.00 7 1011.3
20260509161704 27 49 9.7 22.5 0.00 0.00 0.00 7 1011.3
20260509161604 27 51 9.7 22.5 0.00 0.00 0.00 9 1011.3
20260509161504 27 49 9.7 22.5 0.00 0.00 0.00 9 1011.3
20260509161404 27 50 9.7 22.5 0.00 0.00 0.00 8 1011.3
20260509161304 27 50 9.7 22.5 0.00 0.00 0.00 8 1011.3
20260509161204 27 50 9.7 22.5 0.00 0.00 0.00 8 1011.3
20260509161104 27 48 9.7 22.5 0.00 0.00 0.00 8 1011.3
20260509161004 27 47 9.7 22.5 0.00 0.00 0.00 9 1011.3
20260509160904 27 46 9.7 22.5 0.00 0.00 0.00 7 1011.4
20260509160804 27 46 9.7 20.9 0.00 0.00 0.00 6 1011.3
20260509160704 27 46 9.7 20.9 0.00 0.00 0.00 4 1011.3
20260509160604 27 47 11.3 20.9 0.00 0.00 0.00 3 1011.3
20260509160504 27 51 11.3 20.9 0.00 0.00 0.00 3 1011.3
20260509160404 27 52 11.3 20.9 0.00 0.00 0.00 3 1011.2
20260509160304 27 55 11.3 20.9 0.00 0.00 0.00 3 1011.2
20260509160204 27 56 11.3 20.9 0.00 0.00 0.00 1 1011.2
20260509160104 27 56 12.9 20.9 0.00 0.00 0.00 3 1011.2
20260509160004 27 59 12.9 19.3 0.00 0.00 0.00 3 1011.2
20260509155904 27 62 12.9 20.9 0.00 0.00 0.00 2 1011.2
20260509155804 27 62 12.9 24.1 0.00 0.00 0.00 1 1011.1
20260509155725 27 61 12.9 24.1 0.00 0.00 0.00 1 1011.1
20260509155604 27 58 12.9 24.1 0.00 0.00 0.00 1 1011.1
20260509155504 27 55 11.3 24.1 0.00 0.00 0.00 1 1011.1
20260509155404 27 54 11.3 24.1 0.00 0.00 0.00 1 1011.1
20260509155306 27 51 11.3 24.1 0.00 0.00 0.00 1 1011.1
20260509155204 27 50 11.3 24.1 0.00 0.00 0.00 1 1011.1
20260509155104 27 49 11.3 24.1 0.00 0.00 0.00 1 1011.2
20260509155004 27 45 11.3 24.1 0.00 0.00 0.00 1 1011.1
20260509154904 27 41 9.7 24.1 0.00 0.00 0.00 1 1011.2
20260509154804 27 40 9.7 17.7 0.00 0.00 0.00 1 1011.2
20260509154704 27 40 9.7 17.7 0.00 0.00 0.00 1 1011.2
20260509154604 27 39 8.0 17.7 0.00 0.00 0.00 1 1011.3
20260509154504 27 40 8.0 17.7 0.00 0.00 0.00 1 1011.3
20260509154404 27 40 8.0 17.7 0.00 0.00 0.00 1 1011.3
20260509154304 27 38 8.0 17.7 0.00 0.00 0.00 1 1011.3
20260509154204 27 36 8.0 17.7 0.00 0.00 0.00 1 1011.3
20260509154125 27 36 8.0 17.7 0.00 0.00 0.00 1 1011.3
20260509154004 27 34 8.0 20.9 0.00 0.00 0.00 1 1011.3
20260509153904 27 32 9.7 20.9 0.00 0.00 0.00 1 1011.3
20260509153804 27 32 9.7 20.9 0.00 0.00 0.00 1 1011.3
20260509153704 27 31 9.7 20.9 0.00 0.00 0.00 1 1011.3
20260509153603 27 34 9.7 20.9 0.00 0.00 0.00 1 1011.2
20260509153504 27 36 9.7 20.9 0.00 0.00 0.00 1 1011.2
20260509153404 27 36 9.7 20.9 0.00 0.00 0.00 1 1011.3
20260509153304 27 36 9.7 20.9 0.00 0.00 0.00 1 1011.2
20260509153204 26 37 9.7 20.9 0.00 0.00 0.00 1 1011.2
20260509153125 26 37 9.7 20.9 0.00 0.00 0.00 1 1011.2
20260509153004 26 43 9.7 19.3 0.00 0.00 0.00 1 1011.1
20260509152904 26 45 9.7 19.3 0.00 0.00 0.00 1 1011.1
20260509152804 26 47 8.0 19.3 0.00 0.00 0.00 1 1011.1
20260509152704 26 46 9.7 19.3 0.00 0.00 0.00 1 1011.1
20260509152625 26 45 9.7 19.3 0.00 0.00 0.00 1 1011.1
20260509152504 26 42 9.7 19.3 0.00 0.00 0.00 1 1011.1
20260509152404 26 42 9.7 19.3 0.00 0.00 0.00 1 1011.1
20260509152325 26 42 9.7 19.3 0.00 0.00 0.00 1 1011.0
20260509152204 26 44 9.7 19.3 0.00 0.00 0.00 1 1011.1
20260509152104 26 43 9.7 19.3 0.00 0.00 0.00 1 1011.1
20260509152004 26 41 9.7 19.3 0.00 0.00 0.00 1 1011.1
20260509151904 26 40 9.7 19.3 0.00 0.00 0.00 1 1011.1
20260509151804 26 38 9.7 19.3 0.00 0.00 0.00 1 1011.1
20260509151704 26 40 9.7 19.3 0.00 0.00 0.00 1 1011.1
20260509151604 26 40 9.7 19.3 0.00 0.00 0.00 1 1011.1
20260509151525 26 40 8.0 19.3 0.00 0.00 0.00 1 1011.1
20260509151404 26 42 9.7 19.3 0.00 0.00 0.00 1 1011.1
20260509151304 26 42 8.0 19.3 0.00 0.00 0.00 1 1011.1
20260509151204 26 44 9.7 19.3 0.00 0.00 0.00 1 1011.1
20260509151104 26 44 9.7 19.3 0.00 0.00 0.00 1 1011.1
20260509151004 26 46 9.7 17.7 0.00 0.00 0.00 1 1011.1
20260509150904 26 45 9.7 17.7 0.00 0.00 0.00 1 1011.1
20260509150804 26 47 9.7 17.7 0.00 0.00 0.00 1 1011.1
20260509150704 26 48 9.7 17.7 0.00 0.00 0.00 1 1011.1
20260509150604 25 49 9.7 17.7 0.00 0.00 0.00 1 1011.1
20260509150504 25 52 9.7 17.7 0.00 0.00 0.00 1 1011.1
20260509150404 25 52 9.7 17.7 0.00 0.00 0.00 1 1011.1
20260509150304 25 52 9.7 16.1 0.00 0.00 0.00 1 1011.1
20260509150204 25 51 8.0 16.1 0.00 0.00 0.00 1 1011.1
20260509150104 25 51 8.0 14.5 0.00 0.00 0.00 1 1011.0
20260509150004 25 50 8.0 14.5 0.00 0.00 0.00 1 1011.1
20260509145904 25 51 8.0 14.5 0.00 0.00 0.00 1 1011.1
20260509145804 25 52 8.0 14.5 0.00 0.00 0.00 1 1011.1
20260509145725 25 49 8.0 17.7 0.00 0.00 0.00 1 1011.1
20260509145604 25 46 8.0 17.7 0.00 0.00 0.00 1 1011.1
20260509145504 25 42 8.0 17.7 0.00 0.00 0.00 1 1011.1
20260509145425 25 42 8.0 17.7 0.00 0.00 0.00 1 1011.1
20260509145306 25 40 8.0 17.7 0.00 0.00 0.00 1 1011.1
20260509145204 25 37 8.0 17.7 0.00 0.00 0.00 1 1011.1
20260509145125 25 36 8.0 17.7 0.00 0.00 0.00 1 1011.1
20260509145004 25 35 8.0 17.7 0.00 0.00 0.00 1 1011.1
20260509144704 25 36 8.0 16.1 0.00 0.00 0.00 1 1011.0
20260509144625 25 36 8.0 17.7 0.00 0.00 0.00 1 1011.0
20260509144504 25 30 6.4 17.7 0.00 0.00 0.00 1 1011.0
20260509144404 25 25 6.4 17.7 0.00 0.00 0.00 1 1011.0
20260509144304 25 23 6.4 17.7 0.00 0.00 0.00 1 1011.0
20260509144204 25 26 6.4 17.7 0.00 0.00 0.00 1 1011.0
20260509144125 25 26 6.4 17.7 0.00 0.00 0.00 1 1011.0
20260509144004 24 27 8.0 17.7 0.00 0.00 0.00 1 1011.0
20260509143904 24 24 8.0 17.7 0.00 0.00 0.00 1 1011.0
20260509143804 24 25 8.0 17.7 0.00 0.00 0.00 1 1011.0
20260509143704 24 22 8.0 17.7 0.00 0.00 0.00 1 1011.0
20260509143625 24 21 8.0 16.1 0.00 0.00 0.00 1 1011.0
20260509143504 24 28 8.0 16.1 0.00 0.00 0.00 1 1010.9
20260509143425 24 27 8.0 16.1 0.00 0.00 0.00 1 1010.9
20260509143325 24 29 8.0 16.1 0.00 0.00 0.00 1 1010.9
20260509143204 23 30 8.0 16.1 0.00 0.00 0.00 1 1010.9
20260509143125 23 31 8.0 16.1 0.00 0.00 0.00 1 1010.9
20260509143003 23 32 8.0 16.1 0.00 0.00 0.00 1 1010.9
20260509142904 23 34 8.0 16.1 0.00 0.00 0.00 1 1010.9
20260509142804 23 31 8.0 19.3 0.00 0.00 0.00 1 1010.9
20260509142704 23 30 8.0 19.3 0.00 0.00 0.00 1 1010.9
20260509142604 23 30 8.0 19.3 0.00 0.00 0.00 1 1010.9
20260509142504 23 23 8.0 19.3 0.00 0.00 0.00 1 1010.9
20260509142425 23 21 9.7 19.3 0.00 0.00 0.00 1 1010.8
20260509142307 23 20 9.7 19.3 0.00 0.00 0.00 1 1010.8
20260509142204 23 17 9.7 19.3 0.00 0.00 0.00 1 1010.8
20260509142104 23 11 9.7 19.3 0.00 0.00 0.00 1 1010.8
20260509142025 23 10 8.0 19.3 0.00 0.00 0.00 1 1010.8
20260509141904 24 2 8.0 19.3 0.00 0.00 0.00 1 1010.8
20260509141804 24 358 8.0 17.7 0.00 0.00 0.00 1 1010.8
20260509141704 24 359 8.0 17.7 0.00 0.00 0.00 1 1010.7
20260509141604 24 359 8.0 19.3 0.00 0.00 0.00 1 1010.6
20260509141504 24 1 8.0 19.3 0.00 0.00 0.00 1 1010.6
20260509141425 24 3 8.0 19.3 0.00 0.00 0.00 1 1010.6
20260509141304 24 2 8.0 19.3 0.00 0.00 0.00 1 1010.6
20260509141204 24 1 8.0 19.3 0.00 0.00 0.00 1 1010.6
20260509141104 25 360 8.0 19.3 0.00 0.00 0.00 1 1010.7
20260509141004 25 357 8.0 19.3 0.00 0.00 0.00 1 1010.7
20260509140904 25 357 8.0 19.3 0.00 0.00 0.00 1 1010.6
20260509140825 25 356 8.0 19.3 0.00 0.00 0.00 1 1010.6
20260509140725 25 352 8.0 19.3 0.00 0.00 0.00 1 1010.5
20260509140604 25 345 6.4 16.1 0.00 0.00 0.00 1 1010.5
20260509140504 25 349 6.4 16.1 0.00 0.00 0.00 1 1010.4
20260509140404 25 349 6.4 16.1 0.00 0.00 0.00 1 1010.4
20260509140304 25 353 6.4 14.5 0.00 0.00 0.00 1 1010.4
20260509140204 25 353 6.4 14.5 0.00 0.00 0.00 1 1010.3
20260509140104 25 355 6.4 12.9 0.00 0.00 0.00 1 1010.3
20260509140005 25 3 6.4 12.9 0.00 0.00 0.00 1 1010.4
20260509135904 25 10 6.4 12.9 0.00 0.00 0.00 1 1010.4
20260509135804 25 20 4.8 12.9 0.00 0.00 0.00 1 1010.4
20260509135704 25 28 6.4 12.9 0.00 0.00 0.00 1 1010.4
20260509135604 25 31 6.4 11.3 0.00 0.00 0.00 1 1010.4
20260509135525 25 32 6.4 11.3 0.00 0.00 0.00 1 1010.4
20260509135404 25 33 6.4 11.3 0.00 0.00 0.00 1 1010.4
20260509135306 25 31 6.4 11.3 0.00 0.00 0.00 1 1010.4
20260509135204 25 31 4.8 9.7 0.00 0.00 0.00 1 1010.4
20260509135104 25 32 4.8 9.7 0.00 0.00 0.00 1 1010.5
20260509135004 25 27 4.8 9.7 0.00 0.00 0.00 1 1010.5
20260509134904 25 23 4.8 9.7 0.00 0.00 0.00 1 1010.5
20260509134803 25 16 4.8 9.7 0.00 0.00 0.00 1 1010.6
20260509134703 25 6 4.8 12.9 0.00 0.00 0.00 1 1010.6
20260509134604 25 1 4.8 12.9 0.00 0.00 0.00 1 1010.6
20260509134504 25 340 4.8 12.9 0.00 0.00 0.00 1 1010.6
20260509134404 25 337 4.8 12.9 0.00 0.00 0.00 1 1010.6
20260509134304 25 340 4.8 12.9 0.00 0.00 0.00 1 1010.6
20260509134204 24 347 3.2 12.9 0.00 0.00 0.00 1 1010.5
20260509134104 24 357 3.2 12.9 0.00 0.00 0.00 1 1010.5
20260509134004 24 4 3.2 12.9 0.00 0.00 0.00 1 1010.5
20260509133904 24 16 3.2 12.9 0.00 0.00 0.00 1 1010.5
20260509133804 24 29 3.2 12.9 0.00 0.00 0.00 1 1010.5
20260509133704 24 42 3.2 9.7 0.00 0.00 0.00 1 1010.5
20260509133604 24 46 3.2 9.7 0.00 0.00 0.00 1 1010.5
20260509133504 24 60 3.2 8.0 0.00 0.00 0.00 1 1010.6
20260509133404 24 64 3.2 6.4 0.00 0.00 0.00 1 1010.7
20260509133303 23 66 3.2 6.4 0.00 0.00 0.00 1 1010.7
20260509133204 23 67 3.2 6.4 0.00 0.00 0.00 1 1010.8
20260509133125 23 68 3.2 6.4 0.00 0.00 0.00 1 1010.9
20260509133004 23 71 3.2 6.4 0.00 0.00 0.00 1 1010.9
20260509132925 23 73 3.2 6.4 0.00 0.00 0.00 1 1010.9
20260509132804 23 76 3.2 6.4 0.00 0.00 0.00 1 1010.8
20260509132704 23 77 3.2 6.4 0.00 0.00 0.00 1 1010.9
20260509132604 23 78 3.2 6.4 0.00 0.00 0.00 1 1010.8
20260509132504 23 81 3.2 6.4 0.00 0.00 0.00 1 1010.8
20260509132404 23 84 3.2 6.4 0.00 0.00 0.00 1 1010.9
20260509132306 23 84 3.2 6.4 0.00 0.00 0.00 1 1010.8
20260509132204 23 84 3.2 6.4 0.00 0.00 0.00 1 1010.9
20260509132104 23 84 3.2 6.4 0.00 0.00 0.00 1 1010.9